GFSFLT1_700_rhum_000.txt.gz
RH
6 6 6 6 7 7 7 8 8 9 9 10 12 13 13 13 14 17 17 16 17 16 13 13 14 12 11 11 12 13 14 13 14
6 6 6 6 7 7 8 8 8 9 10 11 13 14 13 14 16 18 16 17 17 16 14 14 14 12 11 10 10 10 12 11 12
8 8 7 7 7 8 8 8 9 10 11 12 14 14 14 15 18 17 17 17 18 17 15 15 15 13 12 10 10 10 11 11 12
9 9 8 8 8 8 8 9 9 10 11 13 14 14 14 16 18 17 17 18 19 18 18 18 16 15 15 12 11 12 12 12 13
9 9 8 8 8 8 9 9 10 10 12 13 14 14 15 16 18 18 18 18 20 19 21 20 18 16 17 17 15 15 14 14 15
9 8 7 8 9 9 10 10 10 11 12 14 14 15 15 16 18 19 18 19 20 20 21 20 21 20 19 18 19 20 19 18 18
8 8 9 9 10 10 11 11 12 12 13 15 16 16 16 16 17 19 20 20 21 22 21 22 22 22 22 22 22 22 21 21 22
8 8 10 10 11 12 13 13 13 13 14 16 17 18 18 18 19 19 21 22 22 23 23 22 23 24 24 24 25 25 25 24 24
8 9 10 12 13 14 15 15 14 14 14 14 17 19 19 19 19 20 21 22 22 23 24 24 23 23 24 25 25 25 26 26 26
10 10 11 13 13 14 15 17 17 16 15 15 16 18 20 22 22 22 22 23 22 23 24 24 24 24 24 24 25 25 26 26 27
14 13 14 15 16 17 16 16 17 18 19 18 16 17 19 22 23 23 24 23 24 24 25 26 26 26 25 25 26 26 25 26 27
15 13 14 17 15 12 14 16 18 20 21 22 22 20 18 20 22 24 25 25 24 26 26 27 27 27 26 25 25 26 26 26 28
23 17 13 11 10 10 13 17 19 21 22 22 23 24 24 22 20 21 23 26 26 25 26 27 27 27 28 27 26 26 26 27 29
22 20 14 10 9 9 13 18 20 23 24 25 25 24 25 26 26 23 21 22 24 26 28 28 28 29 29 30 30 28 27 28 30
29 30 27 20 16 12 15 20 22 25 27 27 28 27 27 26 26 27 27 24 22 23 24 26 28 29 29 29 30 30 28 30 31
31 40 32 28 26 21 18 20 23 26 28 28 27 28 27 26 26 26 28 28 26 24 23 24 24 25 28 28 28 30 30 31 31
39 44 44 38 29 26 23 21 23 26 29 28 26 25 25 24 26 27 26 26 28 27 25 24 24 25 25 26 27 29 31 34 33
45 40 38 42 40 35 30 27 25 25 30 28 29 30 30 30 27 25 25 26 26 27 30 28 26 28 30 30 30 33 36 34 34
42 40 36 40 38 34 32 31 25 25 30 30 31 33 33 33 32 29 27 26 28 29 30 34 32 34 33 34 35 37 39 38 38
41 34 35 35 37 35 32 32 26 26 32 30 32 34 35 35 36 33 30 30 27 27 31 30 33 33 36 35 38 40 43 42 42

GFSFLT1_700_rhum_006.txt.gz
RH
7 7 7 8 7 8 8 8 8 8 8 9 9 10 12 12 13 16 18 18 16 16 16 12 12 12 10 8 7 7 6 6 6
6 8 9 8 8 8 8 8 8 9 9 10 10 11 12 12 14 16 18 18 16 17 16 14 14 14 12 10 9 8 7 8 7
8 8 9 9 9 8 8 8 9 10 10 10 11 11 12 12 13 15 18 18 17 17 18 17 17 16 14 13 12 11 9 9 8
7 8 9 9 9 8 8 9 10 11 12 11 11 12 12 13 13 16 17 18 18 18 19 19 18 17 16 15 14 15 14 13 12
7 8 10 9 8 8 9 10 11 12 13 12 12 12 13 13 14 16 17 18 19 19 19 20 20 20 19 18 17 17 16 17 18
9 10 10 10 10 10 10 11 12 14 14 13 13 13 13 14 15 16 17 17 18 20 20 21 22 22 21 20 20 20 19 19 20
13 13 12 11 10 10 11 11 12 14 15 14 14 14 14 15 16 16 18 18 18 20 21 22 22 23 23 23 23 23 23 22 22
16 15 14 12 10 10 11 12 13 14 15 16 16 16 16 16 16 17 18 20 20 21 21 21 22 23 24 24 24 24 25 25 25
19 20 20 18 13 11 12 14 14 13 15 17 19 20 20 20 19 18 18 19 20 21 22 22 22 23 24 24 25 26 26 26 26
16 14 16 18 17 14 12 14 16 16 15 17 19 21 22 23 23 24 23 22 20 21 22 23 24 24 24 24 25 25 26 26 28
41 39 26 19 20 17 14 13 13 12 13 15 17 19 20 22 23 24 25 25 25 25 23 21 22 24 25 26 26 26 27 27 29
46 47 54 57 47 28 35 38 30 26 22 14 14 16 20 24 26 28 28 28 28 27 27 27 24 23 24 25 27 27 28 29 30
55 56 56 56 56 57 41 49 49 42 35 28 23 21 24 26 28 28 27 26 28 28 28 29 30 28 26 24 23 26 29 30 30
52 51 51 51 51 52 56 50 48 47 44 34 29 27 26 28 30 28 26 27 27 27 28 30 30 30 31 29 26 25 26 29 31
48 49 53 53 54 56 55 53 50 44 41 44 42 36 31 31 28 30 28 30 31 32 30 29 29 30 31 33 33 29 26 25 27
50 54 52 48 50 54 49 47 45 41 38 42 42 40 40 34 28 29 31 30 34 34 34 32 30 28 29 31 32 32 30 28 27
44 47 45 46 48 49 45 45 43 42 40 39 42 42 34 32 32 30 33 32 33 35 37 36 34 32 29 28 29 33 34 31 27
44 44 42 39 40 46 46 46 44 41 36 37 39 42 40 40 29 26 33 34 34 36 38 38 38 37 34 31 29 28 32 35 33
35 33 31 30 31 32 34 33 32 31 32 34 34 35 38 52 45 25 31 35 35 36 38 39 39 38 37 35 34 32 28 33 40
26 25 25 25 26 26 27 29 33 35 36 36 37 32 31 34 48 58 32 35 35 37 38 39 39 39 38 38 38 37 37 29 36

GFSFLT1_700_rhum_009.txt.gz
RH
7 7 7 8 9 8 9 8 8 8 9 10 10 10 10 11 12 12 14 16 17 16 16 16 13 12 12 11 9 7 6 5 5
6 7 9 9 9 9 9 8 8 9 10 11 11 11 11 12 13 13 14 16 18 17 17 17 16 14 14 12 10 9 8 8 7
6 7 8 8 9 10 8 8 9 10 11 12 11 11 12 12 13 13 14 16 18 18 18 18 18 17 16 15 13 11 10 10 10
6 7 8 8 10 9 8 9 10 11 12 12 12 12 12 13 13 14 14 17 18 19 19 19 20 20 19 18 16 14 13 13 13
6 7 9 10 10 9 9 10 11 12 13 13 13 13 13 13 14 15 16 16 18 20 20 20 20 21 22 21 20 19 18 16 16
10 11 12 12 11 10 10 11 12 13 14 15 14 14 14 14 15 16 18 18 19 19 21 22 22 22 23 23 23 22 22 21 20
16 16 16 15 13 11 10 11 12 14 15 16 16 16 16 15 15 16 18 19 20 20 21 21 22 23 24 24 24 24 24 24 24
17 19 21 21 20 18 14 15 16 17 16 17 18 19 19 19 19 18 18 18 18 19 21 22 23 23 24 25 25 26 26 26 26
27 22 17 17 20 22 19 15 15 18 20 19 19 20 21 22 23 23 23 23 22 20 20 21 22 25 25 26 26 26 26 26 27
42 44 47 43 28 21 20 18 19 18 18 17 16 18 20 21 21 22 24 24 25 25 25 24 22 23 24 26 28 28 28 28 28
53 50 50 57 56 57 52 43 42 47 43 36 33 22 17 17 19 22 25 27 28 28 27 27 27 26 24 24 25 28 29 30 30
54 54 55 55 55 54 53 53 55 48 49 50 48 38 32 23 21 24 27 28 29 29 30 30 31 30 29 28 26 25 28 27 30
50 53 54 54 52 51 51 52 53 55 54 47 46 48 38 29 25 27 28 30 30 28 28 28 29 31 32 33 33 31 30 40 49
49 49 49 50 52 54 53 53 57 57 53 51 49 42 42 41 34 28 29 30 30 28 28 30 31 31 31 33 34 35 35 32 30
52 48 46 46 50 52 48 48 52 55 47 47 39 38 33 35 36 34 33 29 29 31 30 32 34 34 33 32 32 34 35 35 37
45 45 44 44 45 45 44 43 49 51 48 46 45 44 40 34 32 39 37 36 35 30 31 31 35 36 36 35 33 32 31 35 35
38 42 42 42 42 43 44 44 41 44 48 48 48 41 32 27 30 33 35 37 41 32 33 33 34 35 37 38 38 37 35 31 30
34 38 38 37 37 34 34 33 35 36 38 40 51 48 41 38 31 27 28 30 34 32 31 36 34 35 37 38 39 38 38 37 32
31 31 31 31 32 31 31 31 31 30 30 34 43 59 73 86 71 59 46 30 28 27 25 33 36 36 38 39 40 40 39 38 36
40 41 42 42 43 45 45 44 43 42 42 50 69 77 78 73 90 97 99 75 54 55 45 41 38 36 39 40 40 41 40 40 44

GFSFLT1_700_rhum_012.txt.gz
RH
7 7 7 9 10 9 9 9 8 8 9 10 11 11 11 11 12 12 12 14 16 17 17 17 17 16 13 12 11 9 8 7 6
6 7 8 9 9 9 10 9 8 9 10 11 12 12 11 12 12 12 12 14 16 18 18 18 18 18 17 15 13 12 10 9 8
6 6 7 8 8 10 10 8 8 9 10 12 13 12 12 12 13 13 14 14 15 17 18 18 19 19 20 18 17 16 14 12 11
6 6 7 8 9 10 10 8 9 10 11 13 14 13 12 12 14 15 15 14 15 16 18 19 19 20 20 21 20 19 18 17 15
8 8 10 11 11 11 11 10 10 11 12 13 14 14 13 13 14 15 16 16 16 16 18 19 21 22 22 22 23 22 22 22 21
14 14 15 15 14 13 12 12 12 13 13 14 15 15 15 14 14 15 16 17 18 18 19 20 22 23 23 24 24 24 24 24 24
16 17 19 20 20 20 18 16 14 14 15 15 16 17 17 17 17 16 17 18 19 20 21 22 22 23 24 24 25 25 26 26 26
22 18 16 16 16 18 19 19 16 14 15 17 17 18 19 20 20 20 20 19 19 20 20 21 22 24 24 26 26 26 26 27 27
40 40 43 40 32 24 22 22 20 18 17 17 18 19 20 22 22 23 24 24 24 24 24 23 22 22 23 25 26 27 27 28 28
50 50 48 51 54 56 56 53 49 43 40 41 35 31 28 22 18 19 21 22 23 25 26 26 26 26 25 24 24 25 27 28 29
53 55 56 57 58 57 57 56 55 54 54 52 50 52 51 44 33 21 17 20 23 26 28 28 29 29 29 28 41 30 26 27 28
47 51 54 56 56 56 54 54 54 54 55 55 55 53 48 49 48 36 25 21 24 27 29 29 28 29 31 32 32 42 60 67 61
46 46 46 47 48 48 48 51 52 52 51 52 54 46 41 40 39 39 37 31 26 26 29 30 29 27 29 31 32 33 34 38 46
42 46 46 46 45 45 44 44 49 48 44 46 48 50 41 39 37 33 31 33 34 31 27 30 32 31 30 31 32 32 34 35 36
29 32 36 42 44 44 45 46 49 48 45 44 41 47 47 45 44 44 43 42 34 35 34 33 30 32 34 33 34 34 34 33 33
39 39 39 45 47 48 49 48 47 45 47 46 40 38 39 40 42 45 42 40 39 38 41 41 39 36 32 34 33 36 36 36 34
33 34 35 37 36 36 35 33 33 32 32 33 34 32 30 29 29 28 29 31 35 35 36 40 41 45 42 37 36 35 37 38 38
35 36 36 37 37 38 38 39 41 41 42 44 46 50 49 56 51 55 51 54 44 54 67 52 39 45 49 42 44 43 41 41 43
33 34 35 36 37 37 38 38 39 39 40 41 44 50 57 83 67 65 76 82 54 54 51 60 72 66 50 44 49 56 53 45 45
42 43 45 47 48 48 47 46 44 43 42 40 40 41 44 50 61 48 47 55 67 64 60 59 75 66 74 88 85 77 62 72 62

GFSFLT1_700_rhum_015.txt.gz
RH
7 7 7 8 10 10 10 10 9 8 8 10 11 12 12 11 12 12 12 12 13 15 16 16 17 18 18 16 13 12 10 9 7
6 6 7 8 8 9 9 10 9 8 9 10 12 12 12 12 12 12 13 13 13 15 17 17 18 18 19 19 18 15 13 12 10
6 6 7 7 8 8 10 10 9 8 9 10 12 13 13 12 12 13 13 13 14 15 17 18 18 19 19 20 21 19 17 15 14
6 6 7 7 8 10 10 10 10 10 10 11 12 13 14 13 12 13 14 15 15 16 17 18 18 19 20 21 22 22 21 19 18
10 10 10 11 12 12 12 11 10 10 10 11 12 13 14 14 13 13 14 15 16 16 16 17 18 19 20 21 22 23 23 23 22
13 14 15 16 16 16 16 15 13 12 12 12 13 14 15 15 15 14 15 16 16 17 17 18 18 19 20 21 23 24 24 24 24
19 18 19 20 20 20 21 21 20 18 17 16 17 18 17 18 18 17 16 16 17 17 18 18 19 20 21 22 22 23 24 25 25
32 32 31 28 25 23 20 21 23 22 20 19 20 22 22 22 21 21 20 20 19 19 19 18 19 19 20 22 23 23 23 25 26
45 44 45 48 51 53 52 49 45 40 37 33 31 30 29 26 23 20 22 23 23 24 23 23 23 23 22 22 22 22 24 25 26
52 54 55 56 56 55 55 55 56 56 55 54 51 48 42 39 35 25 20 18 19 21 22 23 24 25 25 25 25 25 24 23 25
49 51 54 56 57 56 55 54 51 49 49 51 54 55 53 48 38 33 27 24 22 18 18 20 24 27 28 29 29 29 28 30 36
44 44 46 48 49 47 45 44 42 43 47 47 47 48 50 52 51 39 33 34 36 36 30 26 25 26 29 30 31 31 32 32 38
32 32 39 45 48 51 52 50 48 45 43 42 44 43 44 46 49 53 46 41 40 37 38 42 40 31 29 32 34 34 32 33 35
35 40 45 47 49 53 51 51 51 48 47 46 43 42 42 42 41 44 51 51 47 46 44 42 39 42 43 39 36 36 36 34 33
47 48 48 47 46 46 47 46 45 42 36 33 31 31 30 30 29 30 32 36 42 47 50 50 47 44 41 43 45 45 42 40 38
41 39 37 36 36 35 36 36 36 37 39 37 36 35 34 35 36 35 35 34 32 33 35 39 42 43 43 46 50 50 50 48 41
35 36 36 37 37 37 36 36 35 35 36 36 36 34 32 33 32 33 33 34 36 40 43 55 57 54 60 51 54 62 66 58 49
35 37 38 40 41 41 42 42 43 43 43 45 46 43 40 39 38 38 38 38 38 38 39 42 50 62 73 78 93 82 76 78 75
43 45 48 49 50 50 51 51 51 51 51 51 52 52 53 51 40 41 42 43 42 40 38 38 40 46 54 57 75 99 100 99 86
53 54 54 53 53 52 52 51 51 51 50 50 50 50 52 55 54 44 47 48 47 46 45 44 41 40 39 45 49 61 69 96 100

GFSFLT1_700_rhum_018.txt.gz
RH
7 7 7 7 8 10 10 10 10 10 8 8 10 11 12 12 11 12 12 12 11 12 14 15 16 16 17 17 15 13 12 10 9
6 6 6 7 8 8 9 9 10 10 8 8 10 11 12 12 12 12 12 12 12 12 13 15 16 16 17 18 18 18 15 13 11
6 7 7 7 8 8 8 9 10 10 9 9 9 11 12 13 13 12 12 13 13 13 13 14 15 16 17 18 19 19 19 17 14
7 6 6 7 7 8 9 10 11 10 10 10 10 10 12 14 14 13 12 13 13 13 13 14 15 16 17 18 19 19 20 20 19
11 11 12 12 12 13 13 13 13 12 12 11 12 12 12 13 15 14 14 14 14 14 14 14 15 16 17 18 18 19 20 21 22
16 16 16 17 18 19 19 20 19 18 17 16 15 15 15 15 16 16 16 15 14 15 16 16 16 16 17 18 18 18 19 20 21
25 23 21 20 20 21 20 20 20 22 22 20 19 18 18 19 18 18 19 18 17 16 16 17 17 17 17 18 18 18 19 20 21
36 36 36 38 39 41 40 38 35 31 26 25 23 21 20 19 18 18 19 20 20 20 20 19 18 18 19 19 19 19 20 21 21
46 47 46 47 47 46 41 40 41 42 44 47 47 44 40 35 30 24 20 21 18 19 21 23 23 23 23 23 22 22 22 21 22
46 47 48 50 49 49 49 48 47 47 50 51 50 50 51 52 52 50 47 40 36 28 20 17 19 21 23 24 24 25 25 25 24
41 42 43 45 46 46 45 47 48 48 48 47 48 49 49 48 49 50 50 52 54 47 40 38 34 27 22 21 23 26 28 29 29
30 35 42 41 43 45 47 49 52 52 52 48 47 46 45 43 44 46 44 45 46 53 53 43 43 44 43 40 32 28 30 32 33
32 35 38 43 48 50 50 51 48 47 49 46 46 46 45 42 42 42 43 43 42 42 49 53 49 48 44 40 38 39 38 32 36
39 43 45 46 47 48 44 41 39 38 38 37 35 34 33 32 32 32 32 32 31 32 36 41 49 54 54 53 50 47 44 42 41
47 45 42 39 37 37 38 38 39 39 37 36 34 34 34 34 34 34 34 34 36 37 38 39 39 38 42 51 56 54 52 52 57
36 36 37 37 37 36 36 37 38 39 42 41 38 37 36 30 32 31 33 34 34 34 35 36 39 42 49 54 65 77 73 60 55
34 35 36 38 41 43 44 44 43 42 42 41 37 31 24 27 32 32 30 31 34 36 36 37 38 40 40 65 50 76 97 100 99
40 41 42 42 44 46 46 44 43 40 40 42 46 42 37 29 28 24 29 29 34 37 40 41 44 45 44 42 43 43 56 90 98
40 44 47 48 48 46 43 40 34 30 29 30 34 37 42 43 26 31 31 33 35 38 38 41 42 44 45 45 45 46 48 48 55
49 50 48 41 31 23 19 20 23 25 28 32 35 38 40 41 41 30 34 34 29 29 26 26 24 24 26 31 38 45 58 77 75

GFSFLT1_700_rhum_021.txt.gz
RH
7 7 8 8 8 8 9 10 10 10 10 10 8 8 10 11 12 12 11 11 12 12 11 12 13 14 15 15 16 15 12 9 8
6 6 7 7 7 8 9 9 9 9 9 10 9 8 9 11 12 13 12 12 12 12 12 12 12 14 15 15 16 16 16 14 11
5 6 6 7 7 8 8 8 9 9 10 10 10 9 10 11 12 13 13 12 12 12 12 12 12 12 14 14 15 16 17 17 16
7 7 7 7 7 8 8 9 11 11 12 11 11 11 10 11 12 13 14 14 13 13 13 13 13 13 13 14 15 16 16 17 17
15 12 12 12 12 13 14 15 14 14 14 14 13 13 12 12 12 13 14 15 15 14 14 14 15 14 14 14 14 15 16 16 17
22 20 18 18 18 19 19 18 19 18 18 19 18 17 16 15 15 14 15 16 16 16 16 15 15 16 16 16 16 16 16 16 17
28 27 27 27 26 26 27 28 29 29 29 28 25 24 21 19 17 16 16 17 18 18 19 19 18 17 16 17 17 17 18 18 18
35 33 32 33 32 32 33 36 37 36 40 42 46 46 47 47 44 43 41 36 32 26 21 19 21 22 22 20 19 19 18 19 19
40 38 36 37 34 36 38 44 45 47 50 52 52 52 51 49 47 44 44 44 51 53 52 44 33 24 20 22 24 24 24 23 22
39 41 41 41 41 43 44 45 44 45 45 45 45 45 45 45 44 42 40 39 41 46 50 52 53 48 37 33 27 23 22 24 25
36 43 45 46 45 47 50 51 53 53 49 47 48 47 44 43 44 44 42 41 39 42 45 48 49 54 53 41 37 36 33 26 24
35 41 48 49 48 51 50 49 47 45 49 44 41 41 41 42 44 42 40 36 35 36 38 44 46 48 55 57 48 42 42 40 39
41 44 47 49 54 54 53 47 41 37 36 32 32 34 35 35 35 36 35 34 34 34 33 32 32 35 42 48 56 58 59 53 45
45 48 52 55 52 48 42 38 37 37 36 35 34 34 35 36 36 36 37 38 37 36 35 35 35 36 39 41 41 43 48 58 62
47 45 47 44 40 37 38 37 37 38 39 39 37 33 29 28 27 26 22 25 29 32 30 33 33 32 34 37 43 52 65 62 56
32 32 34 35 35 36 38 40 40 37 34 28 24 22 19 16 27 18 24 21 22 24 25 27 36 53 97 58 50 45 52 74 83
34 36 39 41 42 41 37 31 28 26 24 20 15 10 9 11 17 20 20 19 19 20 22 24 28 35 37 38 38 42 46 46 52
42 40 36 33 32 29 28 24 16 12 12 13 18 17 16 14 16 16 17 19 24 24 24 25 28 29 29 29 30 29 31 47 50
35 33 32 32 31 26 20 17 14 15 16 18 22 25 28 29 22 24 25 25 25 26 25 25 25 25 25 26 24 23 24 34 32
29 28 23 18 18 18 17 15 17 20 22 26 28 30 30 30 31 24 29 27 28 25 23 22 22 26 28 28 25 20 20 19 17

GFSFLT1_700_rhum_024.txt.gz
RH
7 8 8 8 8 8 8 9 10 10 10 10 10 10 9 9 10 11 12 12 12 11 12 12 11 11 12 13 14 14 15 15 11
6 6 6 7 7 7 7 8 8 9 9 10 10 10 10 9 10 11 12 13 13 12 12 12 12 12 12 12 13 14 15 15 15
6 5 5 5 6 6 7 7 8 8 9 10 10 11 11 10 10 10 12 13 14 14 13 13 13 13 13 13 13 13 14 15 15
18 14 11 10 9 9 9 9 10 12 13 13 13 14 13 13 12 11 11 12 13 14 14 14 14 14 14 14 14 14 14 14 15
29 24 21 18 17 16 16 16 16 17 17 17 17 17 16 17 17 16 16 16 16 16 16 16 16 15 15 15 15 15 15 15 15
28 28 26 24 24 25 25 27 28 29 30 30 29 30 29 29 28 28 24 22 20 18 18 18 19 20 19 17 16 16 16 16 16
24 29 28 28 28 29 30 32 32 31 33 36 34 29 31 30 29 28 35 38 43 46 44 38 29 23 20 21 22 21 19 18 18
29 32 34 34 33 35 38 41 42 42 41 39 38 38 35 37 39 39 39 40 41 44 47 48 46 46 44 35 25 21 23 24 23
28 35 38 39 37 39 38 40 40 40 41 41 40 38 39 37 40 41 42 44 43 42 42 43 48 48 48 50 53 45 33 25 22
30 35 40 43 42 44 44 46 45 44 42 40 39 36 40 41 41 39 38 38 42 43 43 44 44 45 46 46 48 53 54 45 41
32 37 40 41 41 39 41 42 42 43 40 39 38 37 36 34 36 36 37 36 35 34 33 32 35 39 43 46 47 52 60 59 49
37 39 41 40 46 46 46 47 39 36 34 31 30 31 32 32 34 35 36 35 35 34 34 34 34 34 36 38 37 36 48 56 60
36 37 42 44 44 43 40 36 31 30 32 32 33 34 35 36 37 35 34 32 30 31 32 36 38 40 37 37 37 38 41 44 54
30 27 31 36 34 33 32 32 33 35 37 38 39 36 31 26 23 22 17 16 17 18 20 21 24 25 21 40 80 59 58 63 53
25 28 29 29 31 33 35 37 40 41 36 27 20 18 14 10 9 8 9 9 12 14 15 19 21 21 24 23 40 53 83 79 74
30 32 35 38 40 41 40 35 28 26 22 12 7 7 7 8 10 12 12 14 16 23 25 21 23 22 23 25 28 28 37 40 37
41 42 41 38 35 31 28 21 13 10 10 8 7 7 7 9 10 11 12 11 12 12 13 15 18 21 22 24 25 26 26 27 27
40 38 34 25 16 11 10 9 9 8 8 10 12 11 11 8 8 8 9 10 10 11 11 12 12 11 11 12 13 16 21 25 26
37 29 16 11 10 10 10 9 9 9 10 12 16 19 22 20 10 8 8 10 10 9 8 6 5 4 4 4 4 4 4 5 8
30 17 11 10 10 9 9 9 10 12 14 16 16 15 15 14 11 9 9 9 8 6 6 5 5 5 5 4 4 3 3 3 3

GFSFLT1_700_rhum_027.txt.gz
RH
6 6 7 8 8 8 8 8 8 9 10 10 9 9 9 10 10 9 9 10 12 13 12 12 12 12 12 12 12 13 13 14 14
6 5 6 6 6 7 7 7 7 8 8 8 8 8 10 10 11 11 11 10 11 13 14 13 13 13 13 13 13 13 14 14 14
24 19 16 12 10 9 8 9 9 10 11 12 13 14 14 14 14 14 14 13 12 13 14 14 14 14 14 14 14 14 14 14 14
35 30 24 21 19 18 18 18 18 18 18 18 18 19 18 18 18 18 17 17 17 16 16 16 16 16 15 15 16 16 16 16 16
23 24 25 24 24 25 27 28 30 32 32 32 32 32 30 32 31 31 32 34 26 21 21 20 21 22 21 20 18 17 17 18 18
22 23 25 26 26 28 32 33 34 35 35 34 33 34 37 36 37 40 43 40 35 33 34 35 36 34 28 24 22 21 22 20 18
23 25 27 27 29 30 33 35 35 36 37 40 39 38 36 33 34 35 37 36 36 39 41 44 43 41 42 43 45 42 31 22 22
23 25 30 32 34 35 36 37 38 38 36 35 34 33 32 33 33 32 31 34 38 42 42 44 44 45 42 42 45 47 49 50 42
26 28 30 32 33 36 35 34 34 34 34 32 32 33 31 28 27 27 28 30 31 36 37 40 51 47 42 42 43 44 47 48 51
28 29 30 30 31 31 32 32 31 30 27 24 23 22 23 26 29 31 32 32 31 32 33 33 34 41 60 69 64 55 54 61 68
33 33 32 34 32 28 24 23 24 23 25 26 27 30 32 34 36 36 36 34 35 36 35 35 36 36 39 54 68 73 73 56 61
37 35 37 34 28 25 27 26 26 28 30 32 34 35 36 36 35 33 31 28 26 26 26 24 24 36 75 88 92 72 51 64 52
34 35 32 31 29 28 29 30 33 35 35 36 35 30 24 19 14 11 11 10 9 9 10 11 13 16 17 28 72 71 58 55 80
30 29 29 29 30 34 36 38 38 36 31 24 20 17 12 8 7 7 7 8 8 9 10 12 12 15 15 15 16 16 17 51 80
30 31 34 37 40 41 40 35 31 24 14 9 7 7 7 7 7 8 8 11 10 10 11 11 13 16 18 20 22 22 19 19 21
37 41 43 42 38 35 30 20 9 8 8 7 7 7 7 7 8 9 9 9 10 10 11 12 13 12 11 10 11 12 15 18 20
43 43 42 38 30 19 10 8 8 8 8 7 6 7 8 8 8 7 8 7 7 7 7 8 8 8 8 7 6 6 6 6 8
46 43 37 25 14 10 9 8 8 8 7 7 8 8 8 6 7 6 7 7 7 8 8 8 8 7 7 7 6 6 6 5 5
47 40 30 14 9 9 9 9 8 7 8 8 9 11 12 10 8 7 7 7 8 8 8 8 8 8 8 8 8 8 8 7 6
41 26 13 9 9 9 9 8 8 8 9 9 9 9 10 12 11 9 8 8 9 9 9 10 10 10 10 10 9 8 7 6 5

GFSFLT1_700_rhum_030.txt.gz
RH
6 6 6 6 7 7 7 7 8 8 8 8 9 9 9 9 10 10 10 10 11 11 12 13 13 13 13 14 13 13 14 15 15
27 21 14 10 7 7 6 7 7 7 8 9 10 12 12 13 13 13 13 12 12 12 12 12 14 14 14 14 14 14 14 14 15
36 33 28 22 20 17 16 16 16 16 17 17 18 18 18 18 18 18 18 17 16 15 16 15 15 14 14 15 15 16 16 16 16
20 22 24 24 23 23 23 24 25 26 27 27 28 28 28 26 26 26 26 24 24 21 20 20 20 20 19 18 16 16 16 16 17
18 20 23 24 23 24 26 28 29 30 29 30 32 33 32 31 33 35 36 35 35 36 36 36 35 28 25 22 20 21 21 19 17
19 22 24 24 26 27 26 28 28 31 31 31 31 32 31 31 32 34 35 35 36 35 37 38 36 35 33 34 35 34 28 23 22
23 26 27 28 28 29 30 30 30 31 32 33 33 33 32 35 33 33 35 35 35 36 37 38 40 41 42 40 39 39 39 42 43
24 28 28 27 28 29 31 33 33 32 32 32 31 30 29 27 24 23 23 23 24 25 29 37 73 76 52 49 45 46 44 47 49
24 27 28 29 30 32 33 32 32 29 26 24 23 22 22 23 27 29 30 31 31 31 32 32 31 34 53 70 69 78 76 80 78
27 30 30 31 31 32 30 27 26 26 25 25 26 29 32 34 34 34 32 32 32 32 30 28 29 30 32 47 67 72 77 84 80
35 35 34 33 34 29 28 27 27 26 29 32 34 36 36 36 33 28 24 21 18 17 17 16 15 17 18 19 28 50 69 69 72
43 41 38 35 34 30 29 29 32 35 37 37 35 30 29 24 20 16 12 9 8 8 8 8 8 8 9 10 14 29 51 80 75
42 39 33 32 31 31 36 38 39 37 32 28 24 20 13 9 7 7 8 7 7 7 8 8 9 10 10 10 11 12 17 40 30
38 32 32 32 38 40 40 38 34 29 21 11 8 8 7 7 7 7 7 8 8 9 10 9 9 9 10 9 10 11 11 11 12
33 32 39 42 41 40 38 34 24 12 8 7 8 8 8 7 7 8 8 9 10 9 8 8 7 8 8 8 8 8 8 8 9
39 42 43 43 42 39 29 15 8 8 8 9 9 8 8 8 8 9 8 8 8 8 8 8 8 8 8 8 8 8 8 7 7
43 45 48 46 39 27 14 8 8 8 9 10 10 10 10 9 8 8 8 8 8 8 7 7 7 7 7 7 7 7 7 7 7
50 51 49 39 26 13 9 8 9 10 10 9 9 9 10 9 8 8 8 9 8 7 7 7 8 8 8 8 8 9 9 9 9
53 48 39 26 15 10 9 10 10 10 10 9 8 8 8 8 8 9 9 9 8 7 7 7 8 8 9 9 10 10 10 11 11
46 41 30 20 12 11 11 11 10 10 9 9 8 8 8 9 10 9 9 8 8 8 8 8 9 9 10 10 10 11 11 12 11

GFSFLT1_700_rhum_033.txt.gz
RH
24 16 9 6 6 6 6 7 7 8 8 8 8 8 8 9 10 10 11 11 11 11 11 12 12 13 13 14 14 14 13 13 14
37 33 27 22 18 16 13 11 10 10 10 11 12 14 15 15 16 15 16 15 15 14 13 12 13 13 13 14 14 15 15 14 14
27 26 28 27 24 22 21 20 19 20 20 20 20 20 21 20 20 20 20 20 19 18 18 18 16 16 15 15 15 15 15 15 15
17 17 20 24 25 25 24 25 26 27 28 28 28 30 31 32 33 32 33 34 33 31 28 28 26 21 19 18 18 18 17 16 16
19 21 21 21 22 22 22 24 25 26 27 28 28 29 29 29 30 30 31 31 31 30 31 30 29 29 30 29 28 26 22 19 19
20 24 26 26 28 28 28 28 29 30 31 31 31 31 31 32 32 32 33 33 32 33 32 33 36 39 41 37 35 34 35 36 37
22 25 28 29 30 30 29 30 31 32 32 32 31 31 31 31 30 29 29 28 28 29 32 68 81 60 54 73 49 42 43 42 39
29 25 29 30 30 30 31 32 33 34 32 30 31 29 25 24 25 24 25 27 30 31 31 31 32 32 39 54 84 84 80 74 68
37 29 28 32 32 33 34 34 31 30 29 27 27 28 29 30 32 32 33 33 32 29 28 27 30 32 35 37 50 66 76 82 89
38 33 32 34 33 34 34 29 28 28 26 27 31 34 34 34 31 28 27 23 19 16 14 13 12 14 16 20 23 39 52 68 72
37 35 33 34 33 30 29 29 26 28 35 36 35 32 26 21 18 16 14 13 10 9 7 7 7 6 7 8 9 12 17 19 30
43 40 40 35 31 30 29 29 34 35 35 32 28 23 15 9 8 7 7 7 7 7 7 7 7 7 7 7 8 8 8 10 12
43 43 37 32 30 30 38 38 38 37 34 26 16 9 8 8 8 8 8 7 7 7 8 8 8 9 9 8 8 8 9 9 9
42 35 32 30 33 38 40 40 38 31 19 10 8 8 8 9 9 8 8 8 8 9 9 9 8 8 8 8 7 7 7 6 7
35 32 34 34 37 40 42 39 31 17 9 8 8 9 10 9 9 9 9 9 10 9 8 8 8 8 7 7 7 7 7 7 6
34 37 37 39 44 45 40 27 14 8 8 8 9 10 10 10 10 10 10 9 8 9 9 9 9 8 8 7 7 7 7 6 6
39 42 47 49 48 37 23 13 10 9 9 10 12 13 12 12 11 10 9 8 8 9 9 9 9 8 7 7 7 7 7 7 7
46 51 53 46 36 25 15 11 11 12 12 13 13 13 13 13 12 10 10 10 10 10 10 9 8 8 8 7 7 7 8 8 8
51 51 46 36 27 19 14 14 14 15 14 13 11 10 10 10 13 13 12 12 11 9 8 7 6 7 7 7 7 8 8 9 9
51 48 41 32 24 18 16 16 16 15 13 12 10 10 10 10 11 13 12 8 6 6 5 5 5 6 7 7 8 9 10 11 12

GFSFLT1_700_rhum_036.txt.gz
RH
31 27 22 15 11 7 7 6 7 7 7 8 8 8 8 9 10 11 12 13 13 12 12 12 12 12 13 13 14 14 14 14 13
34 34 32 28 24 21 19 18 16 15 15 15 16 16 16 17 17 18 17 18 18 17 17 16 15 14 13 13 14 14 14 15 15
22 21 24 25 25 24 23 22 22 22 22 24 25 24 26 26 26 26 26 26 26 26 24 22 20 18 17 17 17 16 15 15 15
20 20 22 23 22 22 22 21 22 23 22 23 24 22 22 23 24 24 25 25 25 25 26 24 23 24 25 26 26 24 20 18 18
21 24 24 26 26 26 26 26 26 27 27 28 29 30 29 31 32 32 32 32 32 33 33 34 36 37 38 34 32 30 27 28 28
27 25 28 30 30 32 31 31 32 34 33 34 33 34 33 33 33 32 32 31 32 34 78 86 88 91 91 91 90 65 41 39 38
37 28 28 29 31 33 33 34 34 36 35 31 28 26 26 25 25 24 24 24 24 25 26 29 33 41 54 58 86 93 89 69 53
40 37 30 31 33 35 36 36 35 34 28 27 27 27 26 26 27 28 30 32 32 33 34 34 35 35 35 37 44 86 71 83 82
41 41 36 35 36 37 38 35 33 28 28 28 26 28 31 34 34 34 32 29 27 25 22 19 18 18 20 25 29 34 38 62 73
44 44 41 38 40 39 38 33 29 28 26 30 34 34 33 29 24 19 14 11 9 9 8 8 8 7 8 8 10 12 15 16 24
42 42 41 40 38 36 32 30 27 27 33 35 34 32 27 19 11 8 7 7 8 8 8 8 7 7 7 7 7 7 7 8 10
35 38 40 40 37 33 30 26 31 33 34 34 32 22 12 8 8 8 8 9 9 8 8 8 8 8 8 8 8 9 9 8 8
38 40 43 39 34 30 32 34 35 37 36 29 16 9 8 8 9 9 10 9 9 9 9 9 9 9 9 8 8 8 8 7 7
42 46 39 33 34 34 34 40 42 37 24 13 9 8 8 9 10 10 10 10 10 10 10 10 9 8 8 8 8 8 8 7 7
50 39 34 36 36 38 43 44 35 20 11 9 9 9 10 11 12 12 12 12 11 10 9 9 8 8 9 9 9 9 8 7 7
38 36 37 39 43 43 42 30 20 13 10 11 12 13 14 14 13 13 12 11 10 10 9 9 10 10 10 10 9 9 8 8 7
37 39 42 46 43 36 28 20 16 12 14 16 17 16 15 14 13 13 13 11 10 11 11 11 11 10 9 8 8 7 7 7 7
41 44 45 43 38 31 23 18 15 16 17 18 17 15 15 15 14 13 13 12 12 12 12 10 8 7 6 6 6 6 6 6 6
46 46 47 44 41 36 27 19 17 18 19 18 15 14 14 14 17 16 15 14 13 10 7 6 6 6 6 6 6 6 6 5 5
50 51 50 52 50 42 30 20 19 20 19 16 14 13 12 12 13 15 14 10 7 6 6 6 7 7 7 7 7 6 6 6 7

GFSFLT1_700_rhum_039.txt.gz
RH
31 26 24 19 16 12 9 7 7 7 7 8 8 8 8 9 11 12 13 14 14 14 14 14 14 13 12 12 12 12 13 14 14
32 32 32 28 25 23 20 19 17 17 17 17 18 18 19 20 21 22 22 22 22 22 21 20 19 18 17 16 15 14 13 13 14
21 20 21 23 24 24 24 24 24 24 24 25 24 24 23 22 22 20 20 20 20 20 21 21 23 24 25 24 23 20 18 17 16
22 21 20 22 20 22 22 22 23 24 24 24 25 26 26 27 29 30 30 31 31 32 32 32 34 35 34 32 29 28 26 26 24
30 23 26 27 26 28 29 30 31 31 31 31 32 32 32 32 32 32 32 31 31 33 45 77 81 84 85 85 88 75 51 40 34
37 30 26 29 30 32 33 34 34 34 33 33 33 30 28 25 26 26 24 23 23 23 23 27 46 75 85 86 89 88 84 81 71
39 38 33 28 31 33 34 34 35 35 34 29 26 26 28 27 27 27 27 28 30 32 32 32 31 31 32 40 40 49 55 80 89
41 41 41 35 32 34 36 36 35 35 31 28 29 29 28 26 29 32 34 34 35 34 34 32 33 32 33 34 34 36 37 46 68
43 43 44 41 36 36 37 36 34 32 30 29 27 30 34 35 35 33 28 24 21 17 15 14 13 15 16 15 14 16 20 25 34
45 43 44 42 40 39 38 36 33 30 27 31 33 35 34 32 29 22 14 8 8 8 8 8 8 8 8 8 8 8 8 8 10
43 41 42 42 42 38 37 33 30 29 31 33 35 36 31 21 11 8 8 8 9 9 9 9 8 8 8 8 8 8 8 8 8
38 33 37 40 41 37 33 28 29 31 32 36 36 28 16 9 8 8 8 9 10 10 10 10 10 10 10 10 9 9 8 8 8
35 36 40 41 37 33 30 32 33 38 39 33 20 11 9 8 9 9 10 11 12 12 12 12 11 11 10 10 9 8 8 8 8
36 38 42 38 33 33 35 40 41 37 26 16 12 10 10 11 12 13 14 14 13 13 12 12 11 10 10 9 8 9 9 9 10
89 44 40 34 35 40 43 39 29 22 16 13 12 13 15 16 16 15 14 14 13 13 12 11 11 10 10 10 10 10 11 11 10
79 43 36 37 43 44 39 32 24 18 14 14 15 17 18 17 16 15 14 14 13 12 12 12 12 12 12 12 11 10 8 7 6
52 39 40 45 45 42 38 34 28 20 16 16 19 19 18 16 16 15 15 14 14 13 13 13 13 12 10 8 7 6 6 6 6
40 40 46 47 46 47 49 45 37 24 18 19 20 20 19 18 16 16 16 15 14 14 14 11 9 8 7 6 6 7 7 7 7
40 47 50 50 51 54 52 52 43 25 19 20 21 20 18 18 18 17 18 16 15 13 10 8 7 7 7 8 8 8 9 9 9
48 52 53 54 55 56 55 54 50 27 19 21 20 18 17 17 17 18 17 15 12 10 8 7 8 8 9 9 10 10 10 9 8

GFSFLT1_700_rhum_042.txt.gz
RH
29 23 19 15 12 9 8 7 7 7 7 7 7 8 8 9 11 14 16 16 17 18 17 17 16 16 16 14 13 12 12 12 13
32 32 32 28 25 22 20 19 19 18 18 18 19 19 21 22 24 26 25 24 23 23 24 24 23 23 23 21 19 17 16 14 14
25 19 18 20 22 23 24 24 24 24 24 23 24 25 24 24 24 24 26 28 28 29 30 30 29 28 27 27 27 28 25 22 20
30 20 20 19 19 20 19 22 22 23 24 24 26 28 30 30 30 31 31 32 32 34 37 46 61 67 73 78 74 66 54 33 30
35 29 23 25 26 27 28 29 29 30 30 30 32 32 32 33 31 29 27 26 24 27 30 32 36 59 80 90 87 89 94 95 82
37 36 32 26 29 32 31 31 31 32 33 33 33 30 27 27 27 27 26 27 26 27 28 26 26 27 55 76 81 85 93 87 80
39 39 38 35 30 29 31 32 32 33 34 34 30 29 30 29 26 26 28 30 32 33 34 33 34 34 34 33 36 39 69 54 54
42 42 42 40 37 32 32 33 34 35 36 33 32 30 28 31 34 33 34 34 33 30 26 23 22 24 27 31 31 32 33 34 37
45 46 45 42 41 39 35 36 36 37 34 31 27 30 33 34 34 33 31 27 22 16 10 8 8 8 8 8 9 11 12 13 15
46 47 47 43 42 41 40 40 38 34 30 29 32 33 34 34 32 25 15 10 8 8 8 8 9 9 9 9 8 8 8 8 7
47 46 44 42 42 42 42 38 34 31 32 32 34 36 35 28 18 10 8 8 8 9 10 10 11 11 11 11 10 10 10 10 9
44 44 37 39 45 43 39 34 31 30 32 35 36 31 20 11 9 9 9 9 10 11 12 13 13 13 13 13 12 12 11 10 10
46 44 35 41 44 40 34 30 29 35 37 30 21 14 11 10 10 12 13 15 15 15 14 14 14 13 13 12 12 12 11 10 10
44 52 40 44 42 34 32 34 37 33 25 19 14 13 12 14 16 17 16 16 15 15 14 14 14 14 13 13 12 12 12 11 11
58 90 86 49 36 35 40 40 34 28 23 20 15 14 16 18 18 17 16 16 15 15 15 14 14 14 14 14 14 13 13 13 12
84 98 65 44 37 42 43 39 36 38 34 26 18 17 19 20 19 18 17 17 16 16 16 16 15 15 14 14 13 12 10 8 7
83 88 56 38 42 46 45 47 47 47 45 32 19 18 19 20 20 19 17 17 17 17 16 16 15 14 13 11 9 7 6 6 6
96 90 46 42 48 50 51 51 49 47 47 43 24 18 19 21 20 18 18 17 17 16 16 15 13 11 9 8 7 7 8 8 9
96 61 42 48 53 54 54 55 53 51 48 44 28 19 20 21 21 19 18 18 17 16 14 11 10 9 8 9 9 10 10 10 11
72 80 49 54 57 58 60 61 63 59 54 47 26 19 21 20 19 19 18 17 16 13 11 10 10 10 10 11 11 11 10 9 8

GFSFLT1_700_rhum_045.txt.gz
RH
34 30 25 17 12 9 8 7 8 8 8 8 8 8 8 10 13 16 18 19 21 23 22 22 21 20 19 17 16 15 14 13 13
31 30 31 30 27 23 20 18 17 17 18 19 20 21 22 23 23 23 22 21 20 20 20 21 21 22 22 24 23 22 20 18 16
32 22 18 19 20 22 23 24 24 23 23 22 21 20 20 21 23 25 26 29 28 28 29 28 28 28 31 31 34 36 32 27 25
35 28 21 21 21 21 21 21 22 23 25 27 27 27 28 29 29 30 28 28 25 24 24 24 29 36 67 77 89 87 87 87 84
35 34 30 25 26 27 28 28 28 28 28 29 30 31 30 28 25 23 25 26 26 24 24 23 24 23 25 52 80 89 95 92 84
37 36 36 34 28 26 28 29 30 30 30 30 31 31 27 26 27 26 25 24 25 26 26 28 28 29 28 27 39 56 75 80 82
42 40 39 38 36 32 28 30 32 33 32 32 33 30 29 28 25 24 29 32 32 32 32 31 31 31 30 29 31 31 31 32 35
43 43 42 41 40 37 35 32 33 36 36 34 31 30 27 28 31 31 33 32 31 29 26 22 17 13 10 9 10 13 16 18 22
42 44 44 44 43 40 39 37 37 38 37 34 31 28 30 31 32 28 33 30 25 19 12 8 8 8 8 9 9 9 8 8 8
43 43 44 44 45 41 42 42 40 39 35 31 29 29 30 32 34 30 24 15 10 8 8 8 9 10 10 11 11 11 10 10 10
45 43 44 42 42 40 42 42 41 35 31 29 31 34 33 30 23 15 11 9 9 9 10 11 12 13 13 14 14 13 13 12 12
50 44 42 42 36 35 41 41 35 32 31 34 33 26 19 14 12 10 10 12 14 15 15 15 15 14 14 14 14 14 13 13 13
56 47 40 41 35 38 41 36 33 33 37 31 24 18 14 12 12 13 16 17 17 16 16 15 15 15 15 14 14 14 14 14 13
50 44 41 41 37 40 36 32 34 38 33 28 25 22 16 14 14 17 18 18 18 17 17 17 16 16 16 16 16 16 16 16 15
58 55 44 56 55 39 34 36 39 36 37 41 39 34 23 16 16 19 20 20 19 18 18 18 17 17 17 17 17 16 16 15 14
67 68 72 85 56 39 36 41 40 42 43 42 42 40 33 22 18 19 20 21 20 19 18 18 17 17 17 17 16 15 13 12 10
78 77 80 84 53 38 42 43 44 44 43 42 44 44 38 28 20 19 20 20 20 19 18 18 18 17 16 15 13 11 10 9 8
89 89 85 90 53 40 46 48 49 50 53 55 54 49 43 33 22 20 20 20 19 19 18 17 16 15 13 11 10 10 10 10 10
82 92 98 78 44 46 50 53 56 60 62 60 60 55 45 29 22 20 20 20 19 18 17 15 13 12 11 11 11 11 12 12 11
95 97 100 96 49 51 55 58 62 66 66 66 63 58 48 29 21 21 20 20 18 17 15 13 12 12 12 12 12 11 9 7 6

GFSFLT1_700_rhum_048.txt.gz
RH
35 34 32 28 22 15 11 8 8 8 8 8 8 9 11 14 18 20 22 22 22 21 20 20 20 20 21 21 20 20 18 16 15
34 29 23 23 27 28 26 22 20 19 20 21 22 23 23 22 20 19 19 19 21 23 23 24 24 24 22 22 22 22 22 21 21
31 32 23 18 17 17 18 20 21 20 20 20 20 22 24 25 25 24 27 27 26 26 26 24 26 27 30 46 80 73 78 80 70
32 31 30 24 22 22 23 23 24 25 26 27 28 29 30 29 28 24 22 21 20 21 22 22 21 21 20 25 53 82 90 89 88
37 34 32 31 27 24 26 28 28 28 29 29 31 30 30 26 23 24 25 24 22 22 22 22 22 23 23 24 24 32 60 87 83
42 39 37 36 34 31 27 27 29 30 30 31 32 31 29 27 26 25 22 22 23 25 28 29 30 30 29 28 28 28 29 44 65
44 43 42 40 39 36 34 31 28 30 31 33 34 33 30 28 25 24 25 26 27 27 26 28 27 24 20 17 14 15 18 23 29
41 41 42 42 42 40 38 35 34 34 32 32 32 31 30 26 24 24 28 28 28 27 26 21 16 11 8 7 8 8 8 8 8
44 42 42 42 40 38 40 37 34 33 35 35 32 30 28 28 25 26 29 30 27 21 13 9 8 8 8 9 10 10 11 11 10
46 45 44 41 40 38 38 35 33 36 36 34 31 28 27 30 28 26 22 16 12 10 9 9 10 10 12 13 14 14 14 14 14
49 49 48 45 41 37 36 33 34 39 36 32 28 30 30 25 19 15 12 11 11 11 13 14 16 15 15 14 14 14 14 14 14
49 49 53 57 48 39 35 33 37 37 33 30 33 29 24 20 15 13 12 13 15 17 17 17 16 16 16 16 16 15 15 15 14
52 53 52 54 58 41 35 36 37 34 30 33 31 28 27 26 21 15 14 14 17 18 18 18 18 18 17 17 17 16 16 16 16
52 54 54 48 46 42 38 38 35 31 34 34 34 35 35 35 31 23 17 17 18 18 20 20 19 18 18 18 17 17 16 16 16
55 58 55 59 55 60 53 37 34 35 36 37 35 30 30 34 35 32 24 20 19 20 20 20 20 19 18 18 18 17 17 17 16
63 59 65 66 71 78 60 39 34 41 40 39 36 37 44 45 44 39 30 24 20 20 20 20 19 19 18 18 17 16 15 14 13
66 66 70 75 75 79 62 41 39 44 44 43 46 49 49 49 48 46 39 28 22 20 20 20 19 18 18 17 15 14 12 11 10
68 70 81 88 86 86 89 70 44 48 49 52 56 55 54 53 52 50 44 32 24 21 20 19 18 17 16 14 12 12 12 12 12
63 71 73 91 87 88 77 46 49 51 53 57 58 55 56 57 56 52 44 31 22 21 19 18 16 14 13 13 13 13 13 12 11
63 74 82 89 93 96 69 48 53 55 59 59 57 56 55 57 60 56 41 25 21 20 18 16 14 14 14 14 13 12 10 8 7

GFSFLT1_700_rhum_051.txt.gz
RH
33 31 31 32 31 28 22 18 13 11 10 10 11 13 16 19 20 22 22 20 18 17 17 17 18 18 17 17 17 18 19 19 19
30 31 26 20 18 22 26 27 26 25 24 24 24 23 22 19 17 19 20 23 25 24 26 25 25 25 26 27 31 33 36 42 43
29 29 29 23 19 16 15 15 16 16 17 18 18 21 23 23 22 26 26 24 23 22 21 20 20 20 20 24 31 68 80 86 84
37 33 29 28 25 22 23 24 24 24 24 25 26 26 26 25 25 23 22 23 24 24 23 22 21 21 23 24 24 30 64 81 82
40 38 35 33 30 28 24 23 25 27 27 28 28 28 27 26 26 26 26 24 21 22 23 26 27 27 28 28 28 27 27 32 51
38 41 40 39 36 34 31 28 25 24 28 29 28 28 29 28 28 27 23 22 24 25 26 27 27 27 26 25 23 23 25 28 29
39 39 39 39 37 37 37 35 32 28 26 30 31 31 30 29 28 26 26 25 25 24 27 27 25 23 20 16 11 9 8 9 10
43 42 40 39 38 37 37 39 36 32 30 31 32 32 30 29 26 26 28 29 29 27 25 21 15 10 8 8 8 8 9 9 10
45 46 45 44 42 40 37 37 36 34 31 32 33 32 30 27 27 29 29 25 21 17 12 10 9 9 9 9 10 11 12 13 13
47 47 47 48 46 44 40 37 34 32 32 34 34 32 28 28 29 24 18 14 12 11 10 11 12 13 14 15 15 15 14 14 14
50 49 49 50 52 55 51 40 35 32 33 35 33 29 29 29 24 20 16 13 12 12 14 16 17 17 16 16 16 16 16 15 15
49 49 48 49 50 54 50 52 38 33 36 34 31 31 30 28 28 26 22 17 14 14 16 18 18 18 18 18 18 17 17 17 16
52 50 50 50 51 51 52 51 40 35 34 33 32 33 32 32 31 31 31 27 21 17 18 18 19 20 20 19 19 18 18 17 17
50 49 47 49 53 53 49 45 43 37 35 33 35 36 34 30 30 34 36 34 31 25 21 20 20 20 20 20 19 19 18 18 17
44 51 56 60 56 61 60 56 52 40 36 37 37 38 34 40 42 44 44 43 40 34 26 22 20 19 19 19 19 18 18 17 16
49 53 60 62 58 66 68 70 62 44 37 41 42 40 44 50 50 50 48 47 45 42 34 27 22 21 20 19 18 18 17 16 15
50 59 64 63 65 75 79 79 76 68 52 45 46 45 51 54 51 50 50 50 48 46 39 29 22 21 19 18 17 16 15 13 12
56 62 62 63 71 87 94 88 86 87 62 56 50 53 52 51 51 49 49 51 52 50 39 26 21 20 18 17 16 14 14 13 13
63 57 61 65 72 86 94 93 85 75 51 53 55 58 58 55 53 51 50 54 55 52 40 25 20 19 18 16 15 14 14 14 14
58 60 64 70 79 84 89 97 91 67 52 55 57 59 58 57 55 53 54 56 56 51 31 21 19 18 16 16 15 15 14 12 10

GFSFLT1_700_rhum_054.txt.gz
RH
32 31 28 28 30 30 27 23 17 14 12 12 12 14 16 20 22 22 22 19 16 18 21 23 24 25 25 26 24 21 20 19 19
26 28 28 22 17 16 21 26 27 26 26 26 25 24 21 18 17 18 21 23 24 26 24 23 23 22 22 27 43 50 52 61 66
34 29 26 25 22 19 17 15 16 16 17 17 18 19 21 22 24 24 24 22 22 22 23 24 24 24 24 25 35 72 71 79 85
39 37 33 30 26 23 22 22 23 24 24 25 25 24 24 25 26 24 23 25 25 24 22 22 24 25 26 26 26 26 31 57 72
38 40 39 37 34 31 28 25 22 23 25 26 26 26 27 27 28 26 26 25 21 22 24 27 28 28 30 30 31 30 30 30 30
37 38 40 40 38 36 35 34 30 26 24 25 26 28 30 29 28 28 26 23 22 24 26 26 27 26 27 26 25 23 20 19 21
41 40 38 37 36 35 36 36 35 33 30 28 27 29 30 30 29 27 24 23 24 26 29 28 26 24 19 13 11 10 8 8 8
44 44 44 43 42 40 39 37 36 34 33 31 29 31 32 30 28 25 26 29 27 23 20 18 14 11 9 9 8 8 9 9 10
46 46 46 46 46 45 43 40 38 36 33 31 30 32 31 30 26 28 27 22 18 14 12 11 10 10 10 11 11 12 13 14 14
45 47 47 48 50 50 50 47 42 37 34 32 31 32 32 29 30 27 22 18 15 13 12 13 14 15 16 16 16 16 15 15 15
48 48 49 49 50 51 55 54 53 48 37 33 34 34 31 31 29 28 27 24 20 16 14 15 17 18 18 18 17 17 17 17 17
49 49 48 49 49 50 50 49 49 50 44 36 36 34 31 32 33 34 33 32 29 25 20 18 18 18 19 19 19 19 19 19 18
50 51 52 51 49 46 47 48 48 47 43 40 37 34 34 35 35 31 33 37 37 35 31 27 24 22 20 20 20 19 20 19 19
49 52 50 48 47 46 46 52 56 54 49 43 38 36 37 38 36 41 44 46 45 44 43 39 34 28 23 21 20 19 19 19 18
50 47 45 48 52 56 56 61 64 67 57 44 40 42 42 41 45 49 50 50 49 48 47 45 43 38 32 27 24 22 20 19 18
54 48 46 54 63 67 62 69 76 77 66 50 43 45 49 49 53 54 52 50 49 50 50 50 47 41 33 27 23 21 19 18 17
64 57 51 60 64 67 73 83 87 84 84 76 62 55 52 55 54 55 52 50 49 48 49 51 51 48 40 28 22 19 18 17 16
64 66 60 59 64 68 74 85 95 98 92 91 76 61 56 54 57 55 53 52 50 49 49 52 53 52 43 29 21 19 18 16 16
70 69 65 68 67 66 74 82 92 94 95 84 68 54 56 58 56 56 54 54 53 52 54 56 56 53 39 24 19 18 17 16 16
73 72 67 64 62 67 74 79 88 96 98 92 63 55 59 62 63 60 58 57 57 57 59 61 58 42 25 20 18 18 17 17 16

GFSFLT1_700_rhum_057.txt.gz
RH
26 30 28 25 27 30 29 26 20 18 14 13 12 14 16 20 23 23 22 19 17 19 21 23 23 24 25 30 29 29 27 28 28
29 26 27 24 19 16 17 22 25 26 26 26 25 24 21 17 18 21 24 23 23 22 21 20 20 21 22 26 47 57 61 72 78
38 34 28 25 23 21 20 19 18 16 17 17 19 21 23 24 24 25 24 22 21 22 23 23 21 21 22 23 24 53 66 80 86
40 39 36 33 30 27 24 22 22 24 25 26 26 26 26 26 26 25 24 25 25 23 21 22 23 26 27 27 28 28 28 31 47
38 36 39 39 37 34 32 30 27 25 24 24 26 28 28 28 28 27 26 26 24 22 22 24 24 25 26 26 27 27 29 31 31
41 40 38 37 36 35 35 35 34 32 30 28 27 28 29 30 30 29 28 26 23 24 26 26 25 26 26 25 23 22 21 20 19
43 42 42 42 40 39 38 37 36 34 34 32 31 30 31 32 32 30 28 25 24 27 26 24 22 20 17 15 11 9 9 8 8
45 44 44 46 46 45 44 43 40 38 35 33 32 32 33 33 31 29 27 28 26 21 16 14 12 11 10 10 9 9 9 10 10
45 46 46 46 47 48 49 49 48 45 42 37 34 32 34 33 31 28 29 26 23 19 15 13 12 12 13 13 14 15 15 15 15
46 46 48 48 48 50 51 54 53 50 48 42 35 34 34 32 31 30 28 26 26 24 20 16 15 15 16 17 17 17 17 16 16
48 49 50 51 50 51 51 53 54 53 52 48 43 36 35 34 32 31 32 33 32 30 27 25 21 19 18 18 18 18 19 19 19
51 52 52 51 50 50 51 51 52 50 50 49 45 41 37 35 34 35 35 31 31 34 35 34 32 30 27 24 22 21 20 20 20
52 52 52 52 53 53 51 50 50 49 49 48 46 43 39 36 37 37 34 38 42 44 44 43 43 42 40 36 32 28 24 21 20
53 54 54 51 53 54 53 50 50 50 56 59 53 44 40 39 41 40 44 48 50 49 49 47 47 46 45 43 40 35 30 26 24
50 55 52 48 50 53 54 60 57 61 68 74 62 50 43 42 44 45 50 53 53 52 49 48 48 48 49 48 46 41 33 28 23
56 55 55 52 52 59 60 62 66 74 82 78 71 70 56 47 51 52 51 54 59 52 49 48 48 48 49 51 51 48 42 32 24
60 61 61 60 58 59 62 68 71 78 90 88 89 83 73 69 58 57 59 58 56 53 51 50 50 49 49 51 53 52 45 31 22
62 65 72 64 61 60 71 72 70 76 88 96 95 92 89 80 68 61 62 61 59 56 54 53 51 50 50 51 53 52 44 27 20
66 69 73 75 70 71 75 79 73 75 82 93 97 90 86 66 58 59 60 63 61 60 58 56 55 54 54 55 56 50 34 22 19
72 72 73 77 76 76 74 74 75 80 88 97 99 100 93 84 64 63 63 65 65 64 62 61 59 58 59 59 54 35 22 20 19

GFSFLT1_700_rhum_060.txt.gz
RH
26 27 28 25 22 24 28 28 24 20 19 18 17 19 22 24 24 22 19 18 19 22 23 23 22 22 20 25 26 32 31 34 39
36 30 25 24 22 18 16 16 19 20 22 23 22 20 19 21 24 25 25 25 24 22 21 21 21 22 22 22 23 38 81 86 80
39 38 34 29 24 22 20 20 21 21 22 24 24 25 25 27 28 28 26 24 25 25 24 22 21 22 22 22 23 26 44 66 73
37 36 38 37 34 30 28 25 24 22 23 25 26 28 28 28 28 29 28 28 27 25 23 22 23 24 25 26 27 28 30 28 30
42 40 38 37 36 35 34 32 32 30 28 27 26 27 29 30 30 30 29 28 27 25 24 24 24 26 26 26 27 27 27 27 26
42 42 41 41 38 36 35 35 34 33 32 31 30 30 30 31 31 30 29 28 25 25 26 26 26 25 24 22 21 19 16 14 15
45 44 43 44 45 44 43 42 41 38 37 35 32 31 29 30 31 31 29 27 25 27 25 21 18 15 13 12 11 10 9 9 8
46 46 45 45 46 47 47 48 48 47 45 42 38 34 31 30 32 31 29 26 26 25 23 20 17 15 12 12 12 11 11 11 11
46 47 47 47 47 48 48 50 50 51 48 46 43 38 34 33 32 31 29 28 28 27 26 24 21 17 14 14 15 16 16 16 16
48 48 48 48 49 50 50 51 53 56 53 51 49 45 39 36 34 32 30 30 30 31 30 28 26 25 23 20 18 17 17 18 18
50 49 50 50 51 52 52 52 54 55 53 53 52 48 45 40 36 33 32 34 34 31 29 30 32 34 34 33 31 27 24 22 20
50 51 53 54 54 54 53 52 53 52 50 51 52 50 47 42 38 35 35 36 34 37 39 40 41 41 40 40 40 39 38 34 30
52 52 54 54 53 53 55 54 54 52 49 50 53 54 50 44 40 38 38 38 39 45 48 48 48 46 45 44 44 44 42 40 38
54 55 56 55 55 56 55 52 54 51 54 54 56 62 56 45 43 41 41 42 45 50 50 52 52 47 45 44 44 44 45 45 44
55 55 56 56 56 53 52 54 56 59 61 57 63 71 64 60 54 46 46 51 51 53 53 57 53 48 48 47 46 46 46 46 47
61 60 59 58 55 57 58 57 60 66 67 64 73 76 74 77 70 59 56 54 55 57 57 54 52 51 50 50 50 49 48 49 50
64 64 66 67 62 61 60 60 68 72 71 69 81 83 83 83 82 79 68 61 62 62 61 58 55 55 55 54 52 51 51 52 53
71 68 69 72 69 68 69 69 77 84 81 77 84 90 94 93 87 82 75 67 62 62 64 62 59 58 59 57 54 53 53 54 54
63 61 71 73 72 73 73 76 78 88 92 90 88 90 98 99 93 86 76 70 69 65 63 65 64 63 62 59 57 56 57 58 53
80 74 73 76 76 73 76 82 82 86 94 98 94 96 100 100 94 97 96 86 74 74 70 69 68 67 65 63 62 62 63 60 42

GFSFLT1_700_rhum_063.txt.gz
RH
31 27 25 24 21 19 22 26 27 25 20 22 23 24 25 25 24 21 19 20 23 23 22 22 21 20 21 22 26 39 39 45 50
38 35 29 24 22 20 18 16 16 18 18 18 19 19 19 20 22 23 23 23 22 22 23 24 23 22 21 22 23 50 81 81 81
36 37 36 32 28 24 22 21 21 22 23 24 24 25 26 26 26 26 25 25 26 26 24 22 22 22 24 24 25 26 32 48 76
42 37 37 38 36 33 31 29 27 25 24 24 25 26 26 28 29 29 28 28 27 26 24 23 24 24 25 25 26 25 27 29 30
43 43 40 38 34 32 31 31 31 31 30 29 28 27 26 27 28 30 29 29 28 26 24 24 26 26 26 26 25 25 24 24 25
44 43 44 42 42 42 41 40 38 36 35 34 32 30 28 28 29 30 29 29 27 26 26 26 23 20 17 16 16 14 13 12 10
46 45 44 44 45 45 46 47 47 48 46 43 40 37 33 31 31 30 29 29 28 27 25 23 20 17 15 13 12 11 10 10 10
47 46 46 45 46 46 47 48 49 50 49 46 45 43 39 35 33 32 30 29 28 27 26 25 23 20 18 15 14 14 15 15 16
48 47 47 47 47 47 48 48 50 51 52 50 49 47 44 41 36 33 32 30 28 29 30 30 28 26 25 23 20 18 16 16 17
50 49 48 48 49 49 50 50 51 52 56 54 53 52 49 45 42 37 34 31 30 32 32 30 28 30 32 32 32 31 29 26 24
52 51 50 50 50 51 52 52 53 53 53 52 51 50 52 50 46 40 36 33 33 33 32 34 38 40 40 40 39 39 39 38 37
52 52 52 52 53 54 55 56 53 53 53 52 50 48 50 50 47 43 39 36 35 35 35 40 45 46 45 45 44 43 43 43 42
52 52 53 54 56 56 57 54 55 55 54 51 48 50 54 55 51 45 41 40 39 40 42 48 49 50 56 48 44 43 42 42 43
52 54 56 58 56 56 56 56 56 56 54 52 56 55 54 59 54 48 52 47 43 43 46 51 52 54 55 48 47 46 46 45 44
54 56 57 58 57 56 58 58 57 57 55 58 64 61 60 67 62 66 65 59 50 52 55 54 55 54 52 50 50 49 49 48 47
59 62 60 58 58 58 63 62 58 59 60 65 70 68 66 72 73 77 75 72 72 63 57 59 60 58 56 54 53 52 52 51 50
60 58 62 60 61 63 63 65 64 64 66 74 80 71 72 77 84 86 84 83 80 74 69 63 61 62 61 60 59 58 57 56 54
67 67 67 65 66 68 66 68 68 72 70 81 88 85 80 85 89 96 93 86 80 73 66 64 63 62 63 63 63 61 61 58 56
65 66 71 80 78 73 72 73 76 78 77 82 88 95 86 85 80 86 89 85 94 87 78 75 72 74 71 66 65 65 64 63 61
78 71 72 76 74 77 75 75 77 79 83 87 90 99 98 97 93 85 97 98 83 96 89 86 79 85 86 73 65 65 66 65 65

GFSFLT1_700_rhum_066.txt.gz
RH
32 27 24 22 20 19 20 24 23 23 21 22 23 24 25 25 23 20 19 21 24 22 21 20 22 22 22 31 68 59 64 70 66
38 35 30 25 22 20 18 17 18 20 21 19 19 19 19 21 23 23 24 24 23 23 25 24 23 22 21 22 24 44 67 75 80
35 36 37 34 30 25 23 22 23 24 24 24 24 24 25 26 26 26 26 26 26 26 25 24 23 23 24 24 25 28 30 52 74
43 38 37 36 35 33 31 29 27 26 25 24 24 25 26 26 27 28 28 28 27 26 25 24 24 24 25 25 26 27 27 28 30
44 43 42 39 38 34 33 32 31 31 30 29 28 28 28 27 28 29 29 29 28 26 25 26 26 25 23 22 21 21 22 22 22
45 44 44 44 42 41 43 43 41 39 39 38 36 34 32 30 29 29 30 30 29 27 26 25 22 20 17 15 13 11 11 10 10
46 45 44 44 44 45 45 45 46 48 49 47 45 43 41 38 34 31 30 30 29 27 26 25 23 22 19 17 14 14 14 13 13
47 46 46 46 45 45 46 47 48 49 51 49 47 46 44 42 41 37 33 31 30 28 28 28 28 27 25 22 19 17 16 16 16
48 48 47 47 47 46 47 47 48 50 51 52 50 50 50 48 46 42 39 34 31 30 30 31 30 28 27 27 27 26 25 24 22
48 49 49 48 48 48 49 49 50 51 51 54 56 53 52 51 50 46 43 39 35 32 32 31 30 32 35 37 37 37 38 38 37
50 50 50 50 50 50 50 51 52 53 53 53 54 53 51 50 49 49 46 42 37 34 34 34 35 38 41 42 42 42 41 41 41
53 51 49 50 51 51 51 52 54 56 54 54 54 53 51 45 47 49 47 44 40 39 37 37 40 44 46 46 49 45 42 42 41
50 47 46 51 52 52 53 55 57 57 55 56 56 52 47 50 51 52 51 45 45 46 41 41 45 48 50 51 55 48 44 44 44
45 47 49 52 52 53 56 58 58 56 57 57 54 52 53 56 53 56 55 49 57 55 48 45 49 52 52 53 52 49 47 46 45
46 51 55 55 54 55 56 58 58 59 59 56 56 56 59 60 58 62 60 64 66 64 61 56 56 55 54 56 54 52 51 50 49
55 56 56 58 57 58 59 61 58 60 61 61 57 60 63 64 64 68 70 72 76 72 75 72 65 61 61 59 58 57 57 56 54
60 64 58 56 60 59 58 58 61 65 65 66 64 65 64 65 68 71 77 80 83 81 82 78 73 67 62 59 59 59 60 60 58
52 60 67 68 66 61 63 64 66 67 68 68 73 69 66 71 77 73 74 79 85 88 88 82 79 74 69 70 70 72 70 65 62
56 64 63 64 70 73 70 70 74 74 70 74 73 74 74 80 85 83 79 75 75 84 88 91 92 88 85 83 73 78 80 77 69
77 60 69 66 62 64 67 78 85 85 79 77 80 83 87 86 89 97 95 89 88 92 99 94 98 93 89 89 88 88 76 72 72

GFSFLT1_700_rhum_069.txt.gz
RH
34 29 24 22 20 18 19 23 24 24 23 21 22 24 25 26 24 21 21 22 32 23 22 22 22 21 21 48 46 75 74 77 77
36 36 33 28 23 20 18 17 17 17 18 19 19 18 20 22 24 23 24 23 23 24 24 23 22 21 22 23 25 31 55 66 68
33 35 36 35 32 28 24 22 22 22 23 23 23 24 25 25 26 24 25 25 25 25 24 24 23 23 23 24 26 27 28 32 45
43 38 36 35 33 32 31 30 29 27 26 26 25 25 24 25 26 24 26 26 26 26 25 24 24 25 25 25 26 26 26 27 28
44 44 43 39 38 40 39 36 34 32 31 30 29 29 28 27 27 26 28 27 27 26 25 24 24 23 21 18 16 15 15 15 16
44 44 44 44 44 43 41 43 44 45 45 44 42 40 38 36 33 31 29 29 27 26 25 25 24 23 21 18 16 14 12 11 11
45 45 45 44 44 44 45 45 44 45 47 48 47 45 43 42 40 38 35 31 29 28 26 26 26 26 25 22 19 17 15 15 15
45 46 46 46 45 45 45 46 47 48 48 50 49 48 48 48 47 45 41 37 33 30 28 28 28 29 28 26 24 23 22 20 18
47 47 47 47 47 47 46 46 47 48 49 50 52 52 52 52 51 49 46 43 39 35 31 30 30 30 28 28 30 32 33 33 33
47 48 47 47 48 48 48 48 48 49 50 51 51 54 55 53 52 49 47 47 44 39 35 33 32 31 32 35 37 39 40 39 39
48 48 48 49 49 50 49 49 50 50 52 52 53 52 54 53 51 46 43 47 45 43 38 36 35 34 37 41 42 43 43 41 41
48 48 50 52 51 50 49 50 50 52 53 54 54 53 54 54 49 43 41 47 48 46 41 43 39 38 41 45 47 54 54 46 43
55 54 53 52 50 48 46 50 51 52 54 56 55 55 56 52 46 50 49 44 49 47 47 50 46 42 45 48 49 50 52 48 47
55 55 52 50 46 45 48 51 52 54 56 57 56 57 55 51 50 54 53 52 54 50 58 58 55 50 50 54 52 53 52 51 50
52 53 49 46 45 47 50 54 54 57 58 58 57 58 55 54 53 56 57 58 63 60 66 67 64 66 66 59 56 54 56 55 54
53 54 54 52 53 53 55 56 59 61 60 58 58 59 60 58 55 58 60 61 66 69 71 75 72 74 73 70 68 64 59 55 55
48 52 56 65 63 61 56 58 59 61 61 59 64 62 58 58 61 64 66 68 68 73 77 80 81 78 77 73 70 65 64 66 68
42 51 56 70 72 73 69 62 62 63 64 63 66 67 62 62 64 72 77 78 75 74 80 82 86 88 86 80 84 82 77 78 73
55 55 61 69 82 73 74 76 74 74 71 72 70 70 72 73 72 72 76 84 86 84 84 80 81 89 93 88 87 86 82 81 86
60 60 66 68 70 70 79 75 71 71 78 82 83 83 83 82 84 83 81 83 90 95 99 93 94 92 90 99 96 88 95 84 88

GFSFLT1_700_rhum_072.txt.gz
RH
35 32 27 22 20 19 18 19 23 25 25 25 25 25 26 26 24 19 19 21 29 22 22 22 21 20 20 22 54 54 50 64 69
32 35 34 32 27 22 19 18 17 16 17 17 18 18 19 20 20 22 22 23 24 25 24 23 22 21 22 22 22 24 27 32 43
32 32 35 35 34 31 29 26 24 22 22 23 23 24 24 23 24 25 25 25 26 25 24 23 22 22 23 24 24 24 25 26 29
42 40 35 36 35 32 31 30 29 28 28 27 26 26 26 25 25 26 26 26 26 26 25 24 24 24 24 22 21 20 21 21 23
44 44 43 42 38 38 41 42 41 39 38 37 38 37 36 34 34 30 28 27 26 26 26 25 24 23 22 21 19 17 15 13 12
44 44 45 44 44 44 44 42 40 43 46 47 47 45 44 42 41 40 37 34 32 29 27 26 25 25 24 23 22 20 17 15 14
42 42 44 46 45 45 45 46 46 46 46 47 48 47 47 47 46 46 43 41 39 35 30 28 27 27 28 27 25 23 21 19 17
46 44 43 43 46 47 46 46 46 47 48 49 50 52 51 51 52 51 50 46 42 40 38 32 30 29 29 28 26 26 26 26 26
45 46 47 45 44 45 48 48 48 48 48 48 50 51 52 54 53 53 52 48 45 44 43 40 34 32 30 30 31 33 34 35 35
46 46 47 47 46 44 45 48 49 49 49 50 50 52 52 53 52 52 52 45 42 44 44 42 38 35 33 33 35 37 39 39 40
47 47 46 48 47 48 47 45 44 49 50 51 51 52 53 53 53 51 50 38 42 45 46 45 41 41 37 36 39 42 42 44 46
48 49 48 48 49 51 52 50 45 42 49 51 52 53 55 54 54 51 41 42 47 44 48 46 44 47 44 40 42 44 46 47 47
55 55 54 54 54 55 54 51 45 43 47 52 53 55 56 55 55 50 42 45 51 49 49 49 48 54 52 47 46 49 50 49 52
45 49 55 57 56 56 54 51 49 46 49 52 54 56 58 57 56 51 50 45 48 52 54 53 55 61 60 58 56 59 57 54 53
36 42 50 57 56 51 50 50 52 53 56 56 56 58 60 59 59 53 53 53 50 50 53 61 62 67 68 65 67 66 65 63 62
43 43 42 49 54 54 54 54 57 59 61 62 59 60 63 62 60 59 57 56 59 60 57 58 66 68 73 72 72 71 67 66 64
45 43 42 45 50 55 54 59 63 64 65 67 68 66 64 61 62 64 63 62 64 68 66 65 67 70 76 80 80 79 76 70 78
44 48 49 52 56 56 60 70 73 76 71 74 76 73 68 67 69 68 68 70 69 71 75 76 79 77 75 76 76 88 88 85 83
53 49 48 53 55 70 76 76 77 78 77 80 80 82 81 80 77 78 78 80 76 76 79 89 94 90 89 91 92 94 100 99 100
31 49 59 56 61 63 61 73 70 70 76 70 74 80 84 87 89 90 88 91 97 92 94 99 100 100 98 99 97 100 100 100 99

GFSFLT1_700_rhum_075.txt.gz
RH
34 33 30 26 21 19 18 18 20 22 25 26 26 25 23 19 18 17 18 19 20 20 21 21 20 20 20 21 24 25 68 60 60
30 34 35 33 32 29 24 20 19 18 18 19 18 19 20 21 21 22 22 22 22 22 22 22 21 21 22 22 23 23 24 28 32
33 32 34 34 33 32 31 29 28 26 25 24 24 23 23 23 23 23 23 24 24 24 24 23 22 23 23 22 23 23 23 25 26
39 35 34 33 35 36 36 34 32 30 29 29 29 29 29 29 27 26 26 26 25 25 25 24 23 23 22 22 20 19 17 16 16
40 43 41 40 39 38 37 38 41 43 46 46 46 45 44 43 42 41 39 37 34 30 28 25 24 23 23 23 22 21 19 17 14
41 41 45 46 45 44 42 43 44 44 43 43 42 42 43 42 42 41 39 38 38 38 36 31 28 26 26 25 25 24 22 19 17
44 43 41 41 44 47 47 46 46 47 47 48 48 49 48 48 51 50 50 46 42 40 39 39 34 31 29 28 27 26 24 23 22
45 45 44 44 43 42 43 46 48 48 48 48 48 49 50 50 51 52 53 52 47 40 41 42 41 36 33 31 29 28 28 30 31
46 46 47 48 47 45 44 44 44 48 49 50 50 50 50 51 51 50 52 52 46 37 40 42 43 41 37 34 32 32 34 35 36
47 47 47 47 48 48 47 46 46 46 44 47 50 50 51 52 53 52 52 52 45 36 39 42 43 42 40 39 36 35 37 38 39
50 48 47 48 48 48 49 50 50 49 48 46 46 49 51 53 54 54 54 51 43 42 46 42 43 44 44 46 42 40 40 41 43
55 52 50 49 49 49 49 51 53 53 51 46 47 50 53 54 55 56 55 52 44 45 50 47 46 45 47 50 49 45 44 46 47
51 52 52 53 56 56 56 56 56 55 52 50 49 52 54 56 57 58 57 54 46 47 50 52 51 51 50 57 55 52 50 54 56
35 32 32 33 42 50 56 57 55 52 50 51 54 54 55 56 60 60 60 57 51 51 50 54 54 54 56 63 63 61 61 63 60
42 41 38 39 42 43 46 52 55 53 51 51 54 59 57 59 61 62 62 61 58 55 56 57 58 57 60 65 70 70 70 70 69
42 44 46 46 45 45 45 46 50 53 62 64 61 64 64 64 65 68 65 64 65 62 60 63 66 66 65 67 72 76 78 77 75
47 47 47 48 48 49 48 49 55 54 62 74 77 71 68 65 70 72 73 68 68 72 67 70 72 73 74 74 74 79 83 81 79
58 60 55 52 48 48 54 55 59 68 69 71 78 79 75 73 72 73 75 77 77 77 81 82 83 96 90 88 86 84 82 82 84
61 62 58 52 51 48 52 54 64 64 72 80 74 74 80 85 83 79 82 89 92 91 94 98 97 99 100 100 100 100 99 99 98
40 58 57 44 34 37 50 55 54 67 76 71 84 83 80 84 86 84 83 92 100 100 100 100 99 100 99 100 100 99 100 100 99

GFSFLT1_700_rhum_078.txt.gz
RH
33 33 32 29 24 19 18 17 16 16 17 17 17 17 17 18 18 18 19 20 20 21 21 21 20 20 20 21 21 40 34 47 42
27 31 32 33 33 31 28 26 24 22 21 20 20 21 21 21 21 22 22 22 22 22 22 22 21 21 21 22 22 23 24 26 36
30 29 30 32 33 32 31 30 29 28 27 26 26 26 25 25 24 24 24 24 24 24 24 23 22 22 22 22 21 20 20 20 21
32 31 32 32 32 35 37 39 40 40 40 41 42 43 43 42 41 40 38 37 34 32 29 26 24 23 22 22 21 20 19 17 16
37 35 36 36 38 37 37 39 39 38 37 37 35 35 38 38 40 39 38 37 35 36 38 36 32 29 26 24 24 23 22 20 19
43 44 41 38 43 46 47 46 46 46 46 44 42 41 44 45 47 46 46 45 41 36 33 34 39 34 31 29 27 26 25 23 22
45 45 44 43 42 42 43 45 46 47 48 48 49 49 48 49 48 48 46 49 50 42 36 37 38 40 38 34 31 29 27 26 26
46 46 46 45 45 44 44 44 44 44 46 48 49 49 50 51 52 52 50 44 48 45 37 39 40 42 41 38 34 32 31 32 32
46 46 47 48 48 48 47 46 46 46 47 47 48 49 51 51 52 53 53 51 47 47 37 37 42 42 42 39 37 35 34 35 36
46 47 48 48 48 49 49 50 49 49 49 49 49 47 48 49 52 54 55 55 53 47 39 44 43 43 44 42 42 39 38 39 40
47 49 49 48 48 48 49 50 50 51 52 53 53 50 47 48 51 53 57 57 56 51 42 45 47 44 44 44 46 44 42 42 43
53 56 56 54 52 52 52 52 52 53 55 56 56 53 49 50 52 54 56 59 59 57 48 47 48 50 50 47 48 51 48 46 46
44 44 49 50 50 50 52 56 58 59 59 58 57 54 51 51 53 53 56 60 61 60 54 51 52 53 55 53 52 57 55 52 51
43 40 37 35 35 32 31 35 44 50 52 54 54 52 50 48 53 57 59 61 64 64 62 56 57 57 59 60 58 61 63 61 61
47 45 45 45 43 42 41 39 40 41 44 47 50 54 56 56 55 62 66 65 66 67 68 67 64 66 67 69 69 66 68 69 70
45 46 45 42 45 48 48 47 47 46 48 50 49 55 60 62 64 65 70 72 74 76 74 71 75 77 78 80 80 78 73 73 76
46 50 51 54 56 57 55 52 53 52 55 58 63 63 63 63 76 78 77 81 80 80 82 88 91 93 88 87 98 100 100 98 89
55 58 58 63 67 66 64 56 53 54 53 59 70 70 69 73 72 79 82 87 91 94 95 96 98 99 100 100 100 99 100 99 100
43 54 63 67 62 58 58 59 45 43 47 60 70 74 72 75 74 75 74 80 89 99 100 100 100 100 100 100 99 100 100 100 100
44 48 45 42 39 35 33 30 32 45 47 50 54 62 66 66 70 70 80 84 84 89 94 97 98 100 100 100 100 100 100 100 99

GFSFLT1_700_rhum_081.txt.gz
RH
29 30 32 31 28 24 21 19 18 17 17 17 19 19 20 20 21 21 21 21 22 22 21 21 21 20 20 22 22 22 26 29 40
26 28 30 32 32 31 30 29 28 27 26 26 25 25 24 24 24 24 24 24 24 24 23 23 22 22 22 22 22 22 22 23 36
25 27 28 31 34 35 36 36 36 36 37 39 40 41 40 40 39 38 37 36 34 32 29 26 24 23 22 22 21 20 19 18 18
31 28 29 30 32 33 33 33 33 35 35 36 38 37 36 37 38 38 37 36 36 37 38 37 32 28 26 24 23 22 21 19 17
38 43 41 36 34 36 38 41 42 42 42 42 42 43 43 42 41 43 42 42 40 36 32 32 37 36 32 29 27 26 24 23 20
46 45 45 45 45 43 41 44 45 46 47 47 48 49 50 48 48 48 46 43 45 44 36 34 35 38 38 35 32 30 28 26 24
46 46 46 45 46 46 46 46 44 45 45 45 45 45 50 52 52 52 52 52 46 46 43 34 37 39 41 40 36 33 30 29 30
46 47 47 46 46 46 46 46 47 47 47 48 47 45 45 51 52 53 53 54 53 49 46 37 36 41 41 41 39 36 34 34 34
46 47 47 48 48 49 50 49 49 49 49 49 50 49 48 47 51 53 54 55 55 55 51 41 42 44 42 42 41 40 38 37 38
46 46 47 48 48 49 49 50 50 51 51 52 52 53 53 50 50 52 54 56 56 56 56 47 43 47 46 44 43 44 43 41 41
44 45 47 49 49 49 49 50 50 51 51 52 54 56 56 54 52 50 53 56 58 59 58 56 47 47 49 49 47 45 47 45 44
47 53 57 57 57 56 56 57 57 58 58 60 61 61 60 59 58 54 53 55 58 62 62 60 56 52 52 52 53 49 48 49 48
52 50 53 51 48 45 44 40 41 45 50 55 57 57 55 54 52 51 56 60 61 64 67 66 64 59 57 57 58 57 52 54 54
41 45 45 41 38 37 40 39 38 37 37 39 42 46 48 51 52 55 59 64 68 68 69 72 72 69 66 65 67 67 60 57 58
37 39 46 47 46 46 45 46 45 44 44 44 41 42 45 45 46 53 63 72 74 77 74 78 79 81 82 79 77 78 76 64 61
41 42 45 46 46 48 51 53 54 52 51 49 48 51 52 50 58 66 70 78 83 83 84 83 85 84 90 98 91 97 90 98 69
53 52 53 52 52 55 61 63 62 59 60 53 48 51 55 57 67 70 74 78 83 86 87 89 89 95 99 99 100 100 100 99 100
54 53 50 53 61 65 68 68 67 68 64 57 50 51 48 53 64 65 65 73 81 85 87 90 96 96 98 99 100 100 100 100 100
49 49 48 52 59 65 68 62 62 60 49 41 40 53 58 63 59 59 60 56 60 76 88 91 96 100 100 100 100 96 96 93 98
28 26 32 36 39 43 44 41 36 31 30 33 83 72 58 64 81 63 84 66 56 90 70 97 98 95 98 98 99 100 99 98 100

GFSFLT1_700_rhum_084.txt.gz
RH
28 30 30 31 30 30 28 26 24 24 24 23 23 23 23 23 24 24 24 25 24 24 23 23 22 22 22 23 23 25 30 41 78
26 28 30 30 31 31 31 30 30 30 32 33 35 37 37 38 38 37 36 35 33 32 29 26 24 23 22 22 22 21 21 22 23
24 25 26 27 27 27 30 31 34 37 38 38 37 37 36 37 37 38 38 37 36 36 37 37 34 30 26 24 23 22 21 19 18
38 34 31 29 29 29 31 32 33 35 38 38 38 38 39 40 40 41 41 40 40 37 32 32 34 37 32 30 28 26 24 22 21
39 42 45 45 45 41 34 34 38 39 40 42 45 47 49 49 47 48 49 46 42 44 40 34 35 35 38 36 33 30 28 26 24
47 46 46 46 46 48 48 48 44 44 43 44 44 45 49 52 53 53 52 53 52 44 42 39 33 37 38 41 39 35 32 29 28
47 47 47 47 47 46 46 46 47 48 48 48 47 45 44 47 50 53 54 55 55 54 50 43 37 36 40 40 40 39 36 34 33
47 47 47 47 48 48 48 48 48 48 49 49 50 51 50 48 47 50 52 54 56 56 56 54 42 42 43 41 41 41 39 37 37
46 47 48 48 49 49 50 50 51 51 51 51 51 52 52 53 51 49 51 52 55 57 57 57 54 44 46 46 44 43 43 43 41
46 47 47 48 48 49 49 50 50 50 51 52 52 53 54 56 56 54 53 54 54 56 59 58 58 54 48 49 50 48 44 45 45
44 45 46 47 49 51 51 52 53 53 54 54 56 56 58 59 60 58 57 56 58 58 60 62 63 61 56 53 53 53 52 47 48
42 45 50 56 58 58 58 57 54 54 57 58 59 60 59 58 57 55 54 55 60 64 64 64 66 67 65 60 59 57 57 54 50
51 57 58 55 55 51 44 38 34 34 33 34 36 39 43 47 50 53 57 60 61 65 73 72 70 71 73 71 66 65 62 62 58
50 43 44 46 45 41 39 41 43 42 42 42 41 40 40 40 40 43 47 56 68 74 74 77 78 77 78 79 78 73 74 72 69
40 42 46 45 46 47 48 47 44 47 50 51 50 50 47 44 44 50 57 64 69 76 81 82 84 86 87 87 88 91 83 81 83
44 43 43 44 46 50 48 48 52 59 62 62 60 60 54 47 47 57 61 66 72 76 85 91 91 92 93 94 96 94 97 96 95
54 55 55 55 52 53 53 56 61 64 68 70 67 58 53 41 38 51 54 69 73 68 77 84 90 96 98 100 99 99 100 100 96
61 60 55 52 52 51 56 62 68 71 72 71 72 62 43 32 37 42 55 61 60 67 71 68 74 84 86 98 100 99 100 100 100
56 55 54 54 54 53 62 69 66 63 55 49 47 37 29 34 71 65 64 65 61 62 63 55 61 80 74 98 94 98 99 99 100
52 52 52 50 48 48 52 44 37 32 34 33 29 30 34 44 54 49 49 44 82 46 43 65 56 62 96 63 86 97 99 98 96

GFSFLT1_700_rhum_087.txt.gz
RH
25 27 29 30 30 29 28 27 27 26 27 27 28 29 30 31 31 32 33 33 32 31 28 26 24 23 23 22 21 23 53 68 64
23 25 28 30 30 32 32 32 34 35 36 37 38 39 38 39 38 38 36 35 35 35 36 36 33 29 26 24 23 22 22 21 21
22 22 23 25 26 28 30 31 31 31 30 31 32 33 33 33 34 35 34 35 36 35 31 31 32 36 33 30 28 26 24 23 21
37 35 31 29 27 27 29 31 31 32 33 33 35 39 43 42 41 43 46 46 40 40 38 32 30 32 36 37 34 31 29 26 24
39 42 44 46 47 47 45 42 42 39 38 39 40 39 42 47 50 52 52 51 53 49 41 38 33 34 36 38 39 37 33 30 27
47 47 46 47 48 48 49 49 50 49 49 47 45 44 44 44 46 49 51 52 53 54 54 48 39 36 39 38 39 39 37 34 32
48 48 48 47 48 47 48 47 48 48 49 49 50 51 50 49 47 46 47 50 52 52 53 53 49 39 41 42 40 40 39 37 36
47 47 48 48 48 48 49 50 50 50 50 50 51 52 52 53 53 51 49 48 51 53 54 54 54 51 42 44 44 43 42 41 41
47 47 48 48 49 49 50 50 51 51 51 52 52 52 53 54 56 56 54 52 50 52 55 57 59 58 55 47 45 46 46 44 44
46 47 47 48 48 49 49 50 50 51 51 52 53 53 54 55 58 60 60 58 56 54 54 57 60 62 61 58 52 49 49 49 46
46 46 46 47 47 48 51 52 53 55 57 53 57 59 60 62 62 62 59 57 57 57 57 59 61 63 65 65 63 58 55 55 54
42 43 44 45 49 56 58 58 57 48 46 38 35 35 36 40 44 49 53 56 59 61 62 61 60 63 65 67 68 68 64 62 61
41 43 49 55 58 56 53 46 40 36 38 39 39 39 38 38 39 41 42 46 50 55 61 64 65 66 70 70 70 70 75 72 71
50 55 56 50 44 45 43 40 41 44 42 40 42 44 44 46 44 46 47 52 55 62 65 72 76 77 75 76 78 77 75 79 85
45 46 40 40 43 45 46 45 45 46 45 47 51 55 56 52 54 50 48 52 59 67 73 75 77 81 86 89 92 94 89 86 86
45 44 45 44 43 45 46 46 47 49 52 55 60 62 62 62 61 59 57 47 55 63 72 74 74 77 83 87 90 90 99 97 98
53 55 59 58 55 52 53 54 54 53 60 66 69 61 58 58 62 42 26 40 56 61 68 70 68 72 77 78 79 94 100 100 98
55 58 59 62 65 64 64 58 60 62 65 71 72 62 40 36 35 28 29 67 69 68 68 68 62 60 64 56 72 85 76 88 90
55 54 58 60 61 60 62 62 60 62 62 59 46 33 36 41 32 30 34 46 46 54 48 43 54 42 67 54 62 90 89 66 100
40 45 54 59 60 60 62 61 58 49 33 26 22 22 32 41 41 46 56 34 38 36 33 33 34 37 41 42 43 53 62 71 68

GFSFLT1_700_rhum_090.txt.gz
RH
27 28 28 28 28 28 27 27 28 29 31 32 34 35 36 36 37 37 36 36 36 35 35 34 32 29 26 25 39 49 42 37 33
25 28 29 30 30 31 32 33 34 34 33 32 31 31 31 30 30 30 30 30 30 29 27 27 32 34 32 30 28 26 24 22 20
22 24 26 27 27 28 28 27 27 28 29 31 33 33 34 34 35 36 37 36 33 33 31 28 29 31 34 35 33 31 29 27 24
26 26 26 26 26 27 26 27 27 29 30 31 33 36 38 42 45 44 44 46 48 45 37 35 31 32 34 35 37 36 34 32 29
36 41 43 44 46 46 48 48 48 47 44 42 40 40 39 39 42 43 45 48 48 48 48 46 38 33 34 36 36 38 37 35 33
47 47 46 46 47 48 49 49 49 49 49 49 50 49 49 47 46 45 43 44 46 49 50 51 51 43 39 41 39 38 38 37 36
48 48 48 48 47 47 47 47 48 48 49 50 50 51 52 52 52 52 50 48 45 46 49 53 54 54 49 42 43 42 40 39 39
47 47 47 47 48 48 49 50 50 50 51 51 52 52 52 53 54 55 56 55 52 50 48 50 56 57 56 54 47 44 43 43 41
47 47 48 48 48 49 49 50 50 51 51 50 50 52 53 54 55 56 58 59 58 56 54 54 55 56 58 59 56 52 48 47 47
46 46 47 47 48 48 49 49 50 51 51 53 53 53 56 57 60 62 62 61 58 56 55 55 55 55 55 57 61 61 57 53 52
45 46 46 47 47 47 48 49 52 54 55 53 45 46 42 40 42 43 45 49 51 51 51 52 54 55 55 57 59 63 65 64 60
44 45 46 45 45 46 50 55 57 57 48 40 33 34 35 37 37 37 38 39 40 40 42 43 46 54 58 58 61 68 69 72 72
40 41 42 43 45 52 58 55 51 45 37 37 38 37 39 40 42 46 45 43 44 45 49 55 62 62 63 67 69 70 75 78 78
41 42 44 50 55 56 48 44 43 39 40 43 43 42 47 49 53 54 54 49 46 47 50 62 66 67 69 74 76 75 74 78 82
44 48 50 49 44 40 45 44 42 41 44 46 46 49 55 58 61 63 63 62 57 54 46 56 66 73 76 77 77 84 88 88 85
41 42 42 40 40 44 44 43 45 46 49 49 53 53 62 66 70 67 64 68 68 54 43 55 58 64 74 71 69 72 77 80 87
49 53 55 52 50 51 51 52 53 55 58 60 57 60 64 60 64 63 50 46 31 34 51 55 64 67 65 63 66 77 66 74 80
55 55 55 59 58 59 62 64 67 71 64 64 66 65 59 47 33 26 26 35 30 36 66 64 62 67 42 61 43 58 71 71 97
51 54 55 57 57 56 60 66 70 67 67 66 66 66 50 30 26 25 41 49 49 44 36 41 40 38 36 42 43 52 47 51 71
51 54 56 55 50 50 56 64 67 67 66 65 52 36 25 26 27 38 63 50 47 30 31 34 34 30 29 30 34 36 39 42 51

GFSFLT1_700_rhum_093.txt.gz
RH
26 25 25 25 25 26 26 27 29 32 33 35 35 36 36 34 33 30 29 28 26 26 25 24 28 30 31 30 29 28 25 23 22
27 28 28 29 29 31 32 32 32 29 28 27 27 27 28 28 30 30 31 29 28 27 25 24 24 25 26 30 32 31 29 27 24
26 26 27 27 27 26 25 25 26 26 26 27 30 32 36 36 37 38 38 38 38 35 32 29 27 26 28 30 33 35 35 33 30
22 23 24 24 24 24 25 26 27 27 28 29 30 30 32 32 34 35 38 40 42 42 46 44 37 33 31 33 33 34 34 35 34
33 36 36 38 40 43 45 46 48 49 49 49 48 47 46 44 43 41 40 39 39 40 43 44 44 44 38 38 38 36 35 34 34
45 44 45 45 46 47 48 49 49 49 49 50 50 51 52 52 52 53 52 50 47 44 41 42 45 46 47 44 39 39 39 37 36
48 48 48 48 48 48 48 48 48 49 49 50 51 51 52 52 53 54 55 55 55 54 51 48 45 46 49 49 47 45 41 40 40
48 47 47 47 48 48 49 49 50 50 51 51 50 51 52 53 53 54 56 58 59 58 56 54 51 48 48 49 52 54 51 46 44
47 47 47 48 48 48 49 50 50 50 51 51 52 52 52 53 55 56 59 59 58 57 53 52 52 51 50 50 52 55 58 59 55
46 47 47 47 47 48 48 49 49 50 51 53 54 51 46 50 45 35 34 35 37 37 39 39 39 43 47 51 54 56 59 62 65
46 46 46 46 47 47 47 48 48 52 54 55 45 38 34 33 33 33 32 35 35 38 38 36 40 44 47 49 56 60 62 63 66
44 45 45 46 46 46 46 46 51 57 56 42 36 34 36 34 37 39 44 44 45 42 39 41 45 46 55 59 60 66 67 68 72
44 45 45 45 43 44 45 51 58 54 45 37 37 40 39 38 43 48 52 53 55 53 50 48 43 40 50 58 62 65 69 74 81
45 44 40 40 42 45 54 58 51 43 40 37 40 43 44 45 50 57 59 62 63 64 59 60 57 46 50 70 74 76 66 69 68
40 39 42 44 48 52 54 43 40 42 41 40 43 46 49 52 56 62 64 65 65 57 61 63 44 43 53 67 64 78 70 74 77
44 46 46 45 42 43 39 40 43 44 46 47 51 53 58 59 62 64 65 71 57 48 49 41 36 48 54 62 70 69 68 69 87
50 49 51 46 43 43 44 46 49 52 56 59 62 63 62 60 59 56 50 44 30 29 39 36 41 73 76 67 70 43 52 45 55
63 59 60 54 47 49 54 57 62 65 66 69 74 68 66 66 68 53 29 22 24 45 52 50 50 51 46 45 49 38 36 44 64
72 74 70 69 59 56 58 61 62 62 65 63 69 69 70 72 56 33 20 23 35 59 52 48 34 37 35 35 34 31 33 38 40
96 97 95 87 55 56 60 62 60 57 63 70 66 65 67 50 29 22 27 32 36 46 48 35 35 35 31 27 25 30 34 34 33

GFSFLT1_700_rhum_096.txt.gz
RH
20 19 20 21 23 25 26 28 31 32 33 33 32 31 29 24 24 24 24 25 23 24 23 22 22 24 25 27 30 31 30 28 26
26 27 27 28 29 30 31 29 27 25 25 25 26 27 25 26 28 29 29 29 29 29 27 26 26 25 27 28 28 31 34 34 33
26 26 27 28 26 24 24 23 23 22 22 23 23 24 26 26 28 29 31 31 33 34 34 34 34 31 30 31 31 30 30 32 33
21 21 22 22 21 22 24 27 30 33 36 38 40 40 40 39 40 40 38 36 35 35 35 35 37 38 37 34 34 34 33 33 32
20 20 22 29 36 41 44 46 46 47 47 48 49 51 52 50 52 52 52 52 52 50 45 41 39 40 39 39 38 37 37 37 36
36 38 41 44 46 47 48 49 50 50 50 51 51 52 52 52 53 54 55 55 52 50 51 51 49 45 42 43 44 44 44 42 40
48 49 49 49 49 49 49 49 50 50 51 51 51 51 51 52 53 54 55 57 58 57 52 48 48 49 48 48 47 48 51 53 49
48 48 48 48 48 49 49 50 50 51 52 52 52 52 52 49 51 53 51 50 45 39 39 40 41 41 43 46 49 50 52 56 59
48 48 48 48 48 48 49 49 50 50 51 52 53 54 48 43 37 35 32 31 31 31 33 34 34 34 37 41 44 48 53 57 60
47 47 47 47 48 48 48 48 48 49 51 53 54 48 37 34 31 33 33 34 39 38 36 35 34 40 45 51 57 54 57 61 63
46 46 46 46 46 47 47 47 47 47 52 56 49 36 34 35 34 36 40 46 45 45 46 47 44 42 39 42 59 62 63 64 66
45 45 45 45 46 46 47 45 45 48 56 52 38 33 36 39 39 42 46 51 54 54 53 52 54 51 50 42 50 65 70 73 70
45 44 44 45 45 45 43 43 46 54 56 40 37 35 38 42 44 46 50 56 55 55 54 49 40 45 55 51 46 56 68 73 69
43 44 45 45 44 40 42 45 50 52 41 37 37 38 41 45 50 53 55 58 54 52 47 38 33 40 41 38 49 64 64 70 71
45 46 47 45 38 42 44 45 45 40 37 40 42 44 46 52 56 60 60 59 51 48 36 31 29 39 32 35 55 62 67 79 66
49 48 46 39 44 48 45 41 38 38 42 44 49 51 54 61 68 66 66 67 52 32 24 25 34 40 44 41 72 74 58 64 63
50 48 46 47 52 50 43 42 43 44 48 54 58 58 60 67 69 63 64 58 41 25 23 33 51 56 40 42 43 47 48 50 37
67 60 62 65 61 54 54 54 53 57 59 61 63 62 64 67 67 68 68 57 31 25 27 37 56 50 38 32 36 37 38 38 36
86 82 82 69 67 63 68 75 73 67 66 64 61 65 71 74 75 70 62 36 27 29 32 34 46 44 35 37 36 33 31 31 34
86 87 82 82 83 76 76 82 81 69 68 63 57 57 66 72 77 53 36 33 34 42 36 36 36 34 37 36 30 23 25 34 37

GFSFLT1_700_rhum_099.txt.gz
RH
19 18 18 20 23 25 28 29 30 30 27 25 24 26 23 23 24 25 25 27 26 26 26 25 24 24 26 26 27 30 31 33 33
23 25 27 28 30 29 27 24 22 22 23 24 26 25 23 25 25 25 26 27 27 28 29 30 30 30 28 29 30 30 30 31 31
25 26 27 25 22 21 21 20 20 21 23 26 28 32 35 36 38 38 40 40 38 36 34 32 31 31 31 32 33 34 34 33 32
21 21 20 20 20 21 26 34 41 45 46 46 45 44 50 46 46 46 47 47 47 48 50 48 42 38 37 36 36 37 37 36 36
19 20 20 25 34 40 43 46 49 50 50 51 51 51 52 51 51 53 54 54 54 51 49 50 50 49 47 44 43 45 47 44 42
27 31 36 41 46 48 50 51 51 51 51 51 48 48 49 52 52 51 50 52 52 50 48 45 44 44 46 48 48 48 50 52 54
44 47 48 49 50 51 51 51 52 52 53 53 53 53 51 44 46 42 37 34 33 32 32 34 34 33 34 37 41 45 50 52 55
48 49 49 49 49 50 50 50 51 52 52 53 53 54 43 35 34 30 30 30 33 36 34 33 33 34 40 43 49 46 47 51 56
48 48 48 48 49 49 49 50 50 50 50 53 54 51 35 30 29 31 32 37 40 38 42 44 42 38 39 34 44 57 59 59 60
47 48 48 48 48 48 48 48 49 48 48 53 55 47 34 30 32 32 37 42 44 45 46 47 48 50 52 48 41 45 59 64 66
47 47 47 47 47 47 47 46 45 46 47 54 53 42 32 33 35 37 40 44 48 47 47 47 44 30 39 56 48 43 61 64 67
46 46 46 46 45 46 45 44 44 44 47 53 47 36 32 33 37 41 46 49 53 49 44 39 36 33 40 49 48 46 60 69 70
45 45 45 45 45 45 45 41 43 45 49 51 37 36 36 38 42 47 51 54 55 53 48 33 26 28 35 47 48 66 72 69 72
44 44 44 44 45 46 45 41 43 46 49 47 36 39 41 44 49 55 59 58 59 59 51 30 23 24 38 62 44 64 74 73 76
42 43 43 45 46 47 42 42 44 46 45 37 41 42 46 51 56 63 69 65 62 63 48 26 22 23 45 54 43 44 65 83 88
45 46 48 48 48 47 41 45 46 46 41 41 48 49 55 60 63 68 72 66 64 60 33 21 21 27 52 57 40 30 29 36 55
54 59 56 54 50 43 45 54 54 49 52 51 54 58 62 63 63 68 71 72 58 47 30 25 27 31 44 46 42 34 34 33 31
88 80 74 67 55 56 63 61 56 60 66 73 72 70 67 60 58 64 64 60 60 43 31 27 38 36 38 39 35 36 35 33 30
93 92 90 91 92 83 83 87 67 62 71 83 85 86 76 67 61 62 75 65 48 35 37 39 40 37 41 36 38 37 33 27 27
99 95 96 100 99 97 93 98 97 95 90 91 96 96 80 67 54 50 44 42 48 45 43 34 36 35 35 37 38 36 26 24 30

GFSFLT1_700_rhum_105.txt.gz
RH
17 19 18 18 21 24 26 25 20 20 20 21 22 21 22 23 25 28 28 29 29 29 28 29 29 29 30 31 32 32 32 31 30
19 18 20 23 24 22 20 20 19 18 21 26 31 33 36 38 38 37 36 37 38 41 40 39 38 38 37 35 34 33 34 34 34
20 23 24 21 19 18 18 22 32 36 37 38 38 39 40 42 43 43 42 38 35 33 33 35 37 39 40 40 41 42 42 40 38
22 21 19 18 18 28 33 35 37 41 39 42 43 45 44 43 41 37 34 29 28 28 30 31 31 31 33 35 38 42 43 44 45
19 18 18 27 32 35 37 41 41 46 48 46 44 40 40 35 31 28 26 27 29 29 28 29 29 30 34 38 39 39 41 43 46
18 24 30 36 44 48 50 52 52 52 53 54 49 37 30 29 26 27 29 32 32 37 39 40 38 36 39 37 38 50 48 46 48
29 38 45 48 50 51 52 52 52 52 52 53 51 43 30 27 26 28 33 37 37 39 40 41 39 41 45 48 43 36 52 55 56
42 47 49 51 51 51 51 51 50 50 50 52 53 46 31 29 29 28 33 37 40 40 39 35 36 34 28 27 44 48 39 50 57
41 44 47 48 49 50 50 50 50 49 49 50 51 49 35 30 32 32 36 38 45 47 41 35 27 24 31 42 42 46 42 46 57
46 48 49 49 49 49 49 49 48 48 47 48 51 53 41 30 30 35 39 44 47 50 50 49 41 38 35 34 41 49 46 47 60
48 49 49 49 49 49 48 48 48 47 46 47 49 51 44 35 34 39 44 48 53 58 59 57 54 50 24 30 48 61 55 67 71
48 49 49 48 48 48 48 47 48 47 45 45 46 47 44 37 37 41 46 52 59 67 67 60 64 47 31 60 82 65 71 74 80
49 49 49 48 48 47 47 46 47 48 44 45 45 47 45 38 40 45 50 56 63 71 72 65 60 47 47 57 70 90 90 82 88
48 48 48 47 47 47 46 46 47 48 47 43 45 50 51 44 46 49 55 61 65 71 72 68 61 45 25 53 69 73 70 77 80
46 46 46 45 45 45 46 45 46 48 50 45 48 53 52 48 54 57 63 66 64 66 70 72 64 41 29 33 42 67 81 77 74
43 44 44 44 44 44 45 47 49 53 54 48 50 58 54 55 60 63 75 73 70 70 65 63 48 37 41 38 39 37 42 44 43
56 50 51 55 54 51 56 61 63 63 66 56 60 68 65 60 63 71 77 76 73 71 77 69 70 82 46 44 41 38 37 36 36
56 57 62 70 70 70 69 67 84 89 95 92 90 78 74 71 76 83 85 86 75 84 64 73 72 96 71 52 41 36 36 35 38
65 68 64 63 80 89 81 83 98 97 91 97 97 98 98 97 92 90 94 95 93 62 66 100 79 69 82 63 41 37 36 39 40
76 74 81 92 93 95 100 98 100 99 99 99 98 98 98 99 99 98 99 100 100 91 99 100 72 66 61 65 37 34 39 41 42

GFSFLT1_700_rhum_108.txt.gz
RH
12 19 18 18 21 24 25 21 19 20 20 21 21 23 27 30 31 33 33 33 33 33 33 31 31 30 29 28 29 29 30 31 31
19 18 20 23 23 20 19 18 19 22 28 32 31 30 30 31 31 29 28 28 28 28 30 32 32 33 34 35 36 37 37 35 34
18 21 22 20 18 17 19 26 30 32 33 36 36 38 35 33 33 30 27 25 26 27 27 28 28 28 29 31 33 35 39 41 42
22 20 17 16 18 28 32 30 31 34 36 38 38 36 36 32 27 26 26 27 29 28 29 28 27 29 34 36 38 38 38 40 42
19 17 17 26 30 33 39 44 46 45 44 42 37 31 31 30 28 28 30 31 36 38 39 38 38 39 38 35 33 43 47 45 44
17 20 27 33 40 45 48 52 54 53 50 48 40 30 27 26 28 30 35 36 37 38 35 34 30 28 28 34 42 35 40 51 54
22 30 38 42 46 48 49 49 51 53 54 51 48 35 29 28 27 29 34 38 39 36 32 26 22 21 22 28 35 45 41 40 50
31 38 43 46 49 50 50 50 50 50 51 53 54 46 31 29 30 30 34 39 44 45 44 44 34 34 41 39 37 42 44 42 50
37 42 46 48 49 49 49 49 48 47 47 49 52 53 41 29 28 32 37 41 45 49 51 54 48 47 32 21 40 42 49 43 50
41 45 47 49 50 50 49 48 48 48 47 46 47 51 48 35 31 34 38 43 49 57 60 60 59 56 41 27 45 60 58 60 66
47 49 50 50 50 49 49 48 48 48 47 46 46 45 46 38 34 36 41 46 53 60 67 64 71 64 48 54 70 74 73 70 74
48 49 50 49 49 49 48 48 47 48 48 45 45 45 46 44 38 38 43 49 55 62 69 65 65 67 46 57 73 76 85 88 84
49 49 50 49 49 48 48 48 47 47 48 49 45 45 46 49 42 42 44 51 58 66 73 74 68 62 54 52 71 87 84 76 74
49 49 49 49 48 48 47 47 47 47 48 49 50 46 47 49 50 47 49 53 62 64 68 76 76 69 55 42 40 58 87 90 86
48 48 48 48 48 47 46 46 46 47 49 52 53 50 50 59 58 52 54 58 66 68 66 65 65 63 44 45 46 37 43 52 71
46 46 46 46 45 44 45 46 46 49 55 60 61 58 58 59 68 60 58 61 69 73 72 65 71 67 51 72 47 41 35 37 45
44 50 55 55 48 51 58 62 60 58 62 63 89 96 84 72 75 71 70 72 78 78 82 96 97 61 79 90 60 53 33 31 34
67 62 60 55 57 64 74 81 81 76 76 97 98 97 99 97 96 92 94 87 87 96 94 94 81 92 97 72 61 62 39 30 33
78 76 75 74 80 81 85 92 94 97 95 96 100 98 99 99 99 99 100 100 97 97 99 100 98 99 100 79 83 53 38 29 36
73 76 80 90 97 99 99 96 91 78 87 86 83 80 89 100 99 100 100 99 99 99 100 99 100 100 88 85 67 57 48 37 38

GFSFLT1_700_rhum_111.txt.gz
RH
9 18 18 17 20 21 19 17 17 18 19 21 24 25 25 26 26 25 26 28 27 28 30 30 30 30 31 31 32 32 32 31 30
18 18 18 22 20 17 17 16 18 24 28 28 26 27 27 29 28 26 25 24 25 25 25 24 25 26 28 29 31 34 36 36 37
18 19 23 21 17 16 17 24 28 28 29 31 31 31 30 28 26 24 25 25 25 26 27 26 26 30 34 35 36 37 36 36 38
21 22 19 17 17 25 28 28 29 31 32 33 32 29 26 25 26 26 30 34 35 35 31 27 26 31 33 34 32 38 44 43 42
22 18 15 21 28 27 29 30 32 33 31 29 27 26 26 27 28 31 32 34 34 30 25 22 18 16 16 19 29 33 36 46 49
17 16 21 26 32 36 40 42 43 41 40 36 30 26 24 25 27 31 32 34 32 27 25 20 19 23 31 32 34 39 40 36 42
15 22 25 32 45 50 51 52 51 51 50 46 37 28 26 26 25 28 30 36 40 40 40 42 36 33 22 17 28 37 41 38 41
22 26 31 36 46 49 50 50 49 48 48 48 45 38 29 24 26 29 34 37 40 48 52 52 48 50 38 21 22 34 45 39 40
30 35 41 42 44 46 47 48 47 47 47 46 45 43 38 30 26 28 32 38 45 52 59 56 61 62 52 40 47 58 53 57 60
38 41 46 48 48 49 48 48 48 48 46 45 44 43 42 38 31 32 36 42 47 53 62 65 63 60 61 37 63 68 72 75 71
43 47 49 50 50 49 49 48 48 48 48 46 46 45 44 42 38 33 35 41 49 54 61 72 76 71 69 56 45 59 74 78 77
48 49 50 50 50 49 49 48 48 47 48 48 48 46 46 45 42 38 36 40 48 55 59 60 74 70 66 55 50 63 75 83 84
49 50 50 50 50 49 49 48 48 48 47 48 50 50 48 49 52 49 42 42 46 55 62 61 67 62 58 64 64 54 44 69 88
49 50 50 50 50 49 49 48 48 48 48 48 50 53 53 51 54 59 54 48 50 53 63 65 61 57 60 56 43 45 43 51 64
50 50 50 49 49 48 48 47 47 48 48 49 53 58 59 56 58 64 67 60 58 63 68 71 65 63 70 57 64 78 50 42 49
50 50 49 48 47 47 46 46 48 51 54 56 63 64 79 90 94 95 76 73 69 69 76 76 80 90 92 74 79 69 58 46 35
48 47 46 45 46 48 50 53 64 71 75 76 76 79 85 99 97 98 97 87 87 77 79 84 93 100 98 90 89 78 62 61 44
47 51 60 69 69 68 71 77 85 93 95 90 85 72 72 82 89 99 99 99 99 98 96 99 99 98 100 99 99 93 70 60 39
65 75 77 81 82 85 94 97 99 99 83 78 81 84 87 91 99 95 95 98 100 100 99 96 99 98 99 100 100 86 84 52 51
85 86 82 87 84 98 99 87 68 83 83 88 89 86 92 92 97 99 100 99 98 98 100 100 99 100 100 99 99 91 71 65 61

GFSFLT1_700_rhum_114.txt.gz
RH
11 13 17 18 20 21 19 16 16 16 16 17 20 21 21 22 23 24 25 26 25 24 25 24 24 25 26 27 29 30 32 32 32
11 19 17 20 21 18 16 16 17 21 24 22 20 20 22 23 22 22 22 23 24 24 24 23 25 30 32 33 34 34 34 34 36
19 18 21 22 16 16 15 20 25 24 24 24 23 23 22 21 22 25 28 28 30 28 23 23 28 30 30 30 30 36 40 39 39
18 21 23 18 15 17 24 26 27 28 26 26 23 23 24 25 26 29 31 31 27 22 18 15 13 14 16 19 27 30 35 42 44
22 23 18 16 22 25 24 24 29 29 27 26 25 25 26 28 30 30 31 30 26 22 21 19 21 23 20 23 28 35 36 34 38
25 18 16 24 24 26 30 32 35 35 30 26 23 22 22 24 26 30 32 37 37 38 41 41 38 30 19 13 19 27 35 33 36
19 17 24 26 34 41 44 44 42 42 40 33 25 23 24 24 24 28 31 34 37 46 49 49 48 50 43 33 23 25 38 34 34
17 24 29 39 47 49 49 48 46 44 44 43 40 33 26 22 23 26 29 34 40 47 55 56 56 59 54 36 50 51 49 50 53
23 29 39 46 48 49 48 48 45 44 42 41 40 40 38 31 28 30 34 38 41 46 53 60 63 59 55 42 40 51 61 69 69
28 39 44 48 48 49 49 49 48 47 46 45 43 40 38 37 33 30 31 35 43 48 52 56 69 73 68 55 51 46 63 72 72
37 43 47 48 49 50 49 49 49 49 49 48 47 46 46 44 41 39 34 35 40 48 54 54 59 66 63 62 53 49 56 74 79
45 48 50 50 50 50 50 49 48 48 48 49 50 50 48 48 49 48 46 39 40 46 53 59 56 53 55 54 51 46 40 49 58
49 50 50 50 50 50 49 49 49 48 48 47 48 48 49 51 50 51 56 56 47 46 52 60 65 63 56 58 63 45 40 34 36
50 51 51 50 50 50 49 49 49 48 48 47 48 48 50 53 55 53 55 63 64 57 56 60 69 71 70 66 65 63 74 52 40
50 51 51 51 50 50 49 49 48 48 47 48 51 55 59 62 68 80 85 86 72 69 64 65 75 80 81 88 90 83 72 62 66
51 51 51 51 51 50 48 48 48 48 51 61 69 71 69 69 71 79 89 97 88 83 76 79 86 81 95 97 98 98 98 82 67
50 50 50 50 50 48 47 48 50 56 74 84 83 74 76 76 74 94 100 97 99 91 85 86 97 93 97 99 98 100 98 96 70
48 49 50 50 47 48 51 61 66 80 88 82 60 55 65 67 74 83 97 98 100 100 100 98 99 98 98 99 98 98 100 98 74
47 48 48 50 66 79 82 87 83 94 77 83 63 61 71 72 76 78 86 96 95 99 100 99 100 98 100 100 100 100 100 99 85
50 53 62 73 89 93 97 97 90 72 62 85 69 64 72 72 73 90 81 84 97 100 99 98 100 99 94 98 99 100 100 99 88

GFSFLT1_700_rhum_117.txt.gz
RH
63 11 19 16 19 20 19 16 15 15 17 17 19 21 20 20 21 21 21 21 22 21 21 22 24 27 28 29 30 32 31 32 34
16 17 18 19 21 19 16 17 16 18 23 22 20 20 22 20 20 20 21 22 24 23 23 25 25 25 25 26 28 34 35 36 35
10 19 19 22 20 16 16 18 23 22 22 24 24 22 20 21 26 27 27 25 20 16 13 12 12 14 16 20 25 27 32 36 38
19 19 23 22 17 16 19 24 24 24 24 23 23 23 24 24 27 28 27 22 16 14 14 17 16 14 14 18 23 29 30 30 34
19 22 23 18 16 22 26 27 27 27 26 24 24 25 27 28 28 28 29 27 30 34 38 38 36 26 16 13 15 22 29 27 28
21 24 18 17 26 27 29 30 28 27 25 22 21 21 21 22 25 27 32 33 36 42 46 45 48 49 45 33 26 24 31 28 28
26 21 17 25 28 32 36 38 35 32 28 24 22 22 22 22 23 27 29 31 35 41 48 52 52 53 49 34 38 46 47 44 46
26 18 22 26 36 43 45 46 44 43 40 38 32 28 24 22 23 26 29 31 34 40 48 53 62 66 63 51 42 38 51 64 64
19 21 27 37 46 50 49 49 47 43 42 42 39 35 32 28 27 27 29 31 36 44 49 51 52 64 66 62 50 44 48 64 65
17 28 37 48 49 49 48 47 48 47 46 45 45 44 42 39 36 33 31 31 34 41 49 51 51 53 54 49 52 51 49 51 60
26 36 49 50 50 49 50 50 50 50 49 48 48 48 48 47 47 46 43 40 36 38 41 48 56 57 53 48 48 45 41 36 40
31 46 48 50 51 51 51 51 50 50 49 49 49 49 50 50 49 49 49 51 52 47 43 45 52 60 64 61 60 62 53 47 40
39 46 50 51 52 51 51 50 50 49 48 48 48 48 48 49 52 53 53 53 57 62 59 52 53 60 67 71 68 66 65 68 67
46 50 51 52 51 51 51 50 49 49 48 48 47 48 50 53 55 57 58 58 61 73 72 66 61 61 66 73 82 93 95 96 88
50 52 52 52 51 51 51 50 49 49 48 48 49 53 61 64 66 67 79 82 88 93 86 76 73 72 74 76 93 95 92 97 93
51 52 52 52 51 51 51 50 49 49 48 49 52 65 70 74 73 75 77 88 99 98 89 91 90 81 87 92 93 99 97 98 96
50 52 52 52 51 51 51 50 48 48 50 57 68 68 63 67 77 76 75 81 90 98 98 95 93 92 98 99 98 99 100 100 100
50 52 52 52 51 51 50 49 49 56 62 64 72 76 83 80 62 69 76 82 87 93 97 98 88 98 98 100 99 100 99 100 100
49 50 51 50 50 51 49 61 80 86 87 75 87 89 76 80 68 57 68 78 85 94 97 99 99 98 99 98 92 87 89 100 100
46 47 48 49 50 52 77 84 91 68 98 80 72 89 82 68 66 63 66 80 87 84 93 98 89 92 78 77 87 92 100 100 100

GFSFLT1_700_rhum_120.txt.gz
RH
88 21 15 15 16 18 18 15 14 15 17 17 18 20 22 19 20 19 19 19 18 17 18 19 17 18 19 21 25 30 32 33 33
86 14 15 16 18 19 16 15 14 16 22 24 21 19 19 18 19 20 21 15 11 9 8 9 11 12 14 17 20 22 25 30 32
58 14 16 17 19 16 15 15 19 22 23 24 23 21 20 22 23 21 17 13 10 10 15 13 10 9 10 13 19 22 23 23 24
19 18 17 19 17 15 15 21 22 23 26 24 22 22 23 25 26 25 21 20 28 33 36 36 32 22 16 12 12 17 20 20 21
14 19 20 19 15 15 21 23 24 26 25 24 24 25 26 28 28 30 32 33 38 43 45 46 51 50 41 27 24 26 26 24 23
19 20 22 16 16 22 24 25 27 27 24 23 24 23 21 24 26 30 31 32 36 41 45 49 52 52 42 31 28 31 41 46 48
20 24 21 16 23 27 26 26 26 24 23 22 22 22 20 22 23 24 27 32 34 39 45 49 58 66 64 55 44 35 41 53 54
21 24 18 20 28 27 30 30 30 28 26 25 24 22 21 22 25 27 28 30 35 44 47 47 48 53 54 54 49 46 44 51 55
21 23 16 25 28 35 39 39 41 41 37 37 32 32 29 28 27 28 28 30 33 37 42 48 52 50 46 43 43 42 40 33 38
23 20 21 25 36 44 44 43 44 42 41 42 42 43 43 43 43 42 41 40 38 37 38 41 45 52 52 52 50 53 57 48 40
24 17 26 34 43 45 46 47 48 49 48 48 48 48 48 48 48 49 49 50 51 50 47 44 44 48 53 58 61 58 59 62 64
23 20 32 44 42 46 50 51 51 50 50 50 50 50 50 50 51 50 51 52 53 57 60 59 61 55 58 61 64 66 70 75 89
20 28 43 43 45 51 51 52 51 50 49 48 48 48 49 50 51 53 55 57 56 58 62 69 80 78 70 70 72 83 97 94 88
20 31 42 42 50 52 52 51 50 50 49 49 48 48 49 53 59 62 66 75 80 87 91 92 86 71 78 85 94 95 95 92 95
22 32 39 50 52 52 52 51 50 50 50 49 48 48 50 65 72 70 75 78 79 85 89 95 89 79 81 81 89 91 96 89 94
26 39 48 51 52 52 51 51 50 50 50 49 48 50 60 71 73 72 77 76 75 85 87 89 89 96 94 92 94 97 100 99 98
30 44 50 52 52 52 51 51 51 50 49 48 51 58 68 74 81 79 73 77 76 83 88 89 82 81 81 88 87 89 99 93 96
35 46 52 53 52 52 52 52 51 50 48 52 67 76 80 87 87 79 76 70 66 78 87 95 92 99 87 98 99 90 89 81 88
38 48 52 53 53 53 52 52 51 49 56 76 71 79 89 94 91 71 68 68 64 75 89 88 91 99 94 77 83 72 76 83 94
38 47 52 53 53 52 51 51 51 56 67 78 77 70 71 79 87 75 64 58 60 62 75 75 81 85 66 62 64 64 66 84 99

GFSFLT1_700_rhum_123.txt.gz
RH
76 41 14 14 13 16 17 14 13 13 14 14 15 18 19 18 18 18 17 14 9 8 9 10 11 12 14 16 16 18 22 24 26
74 36 15 15 16 16 15 14 13 14 16 18 17 19 19 18 20 19 13 9 8 10 11 10 9 9 10 13 17 19 19 19 21
75 32 16 16 17 15 15 15 15 18 17 17 19 19 23 23 20 16 12 14 26 31 32 31 26 20 15 11 13 19 19 17 18
87 20 17 18 19 15 15 17 20 17 18 19 18 24 25 25 23 20 28 32 37 41 43 47 49 44 30 21 22 25 26 24 28
82 17 18 21 19 15 16 22 21 20 20 20 23 26 26 26 28 29 31 34 38 40 43 48 53 50 43 35 25 25 36 42 43
72 18 19 22 18 17 24 24 25 23 22 24 25 26 24 25 26 27 29 32 34 39 44 47 56 60 56 50 44 35 37 43 39
59 18 21 20 18 24 26 27 25 24 22 22 20 23 21 22 24 28 29 30 38 43 44 43 44 43 38 36 35 35 33 30 31
31 19 21 17 19 26 26 24 23 21 20 21 20 20 20 24 26 27 28 30 32 35 38 41 45 44 45 44 43 46 46 45 37
19 20 21 17 23 28 27 25 24 23 22 24 27 26 27 29 32 34 36 37 37 37 37 38 42 46 51 53 52 52 55 58 60
15 21 22 18 28 28 28 31 35 34 32 31 36 40 44 46 47 48 49 49 49 48 47 45 46 49 51 56 58 57 60 67 80
17 23 20 23 29 31 36 41 39 38 41 45 47 48 48 49 50 50 50 51 53 54 57 58 56 62 56 57 58 63 70 82 89
20 26 19 27 30 34 40 42 43 46 47 49 50 50 50 48 48 50 52 54 56 57 58 61 65 81 80 66 76 75 89 92 93
22 26 20 29 31 36 42 46 48 50 50 50 50 49 49 49 50 56 59 61 67 74 80 85 90 91 82 80 96 96 99 95 92
22 27 22 29 34 40 46 50 51 50 50 50 49 49 48 49 59 65 69 72 75 76 81 82 91 92 86 79 80 85 92 92 96
22 27 26 27 36 45 51 51 51 51 50 50 49 48 49 54 67 73 64 71 74 74 74 83 91 92 94 96 92 91 89 95 93
23 26 22 26 42 50 52 52 51 51 50 51 50 49 52 58 74 68 78 70 71 72 70 81 86 87 93 94 84 86 87 95 98
24 26 20 31 48 52 53 52 52 51 50 50 49 49 57 66 78 86 78 72 60 58 68 83 84 90 84 90 87 83 94 87 91
26 24 22 43 52 53 53 52 52 52 50 50 49 50 67 78 79 89 80 74 65 60 64 77 82 82 80 84 84 89 72 76 74
29 24 29 49 54 54 53 52 52 52 51 49 49 57 74 78 68 73 80 74 63 58 67 78 82 87 92 88 73 64 64 62 61
31 24 34 50 54 54 53 53 52 52 52 50 59 67 84 78 65 69 78 64 56 56 66 67 70 75 73 64 59 60 64 61 58